                ,  0.482,  0.579,  0.676,  0.773,  0.870,  0.967,  1.064,  1.161,  1.258,  1.354,  1.451,  1.548,  1.645,  1.742,  1.839,  1.936,  2.033,  2.130,  2.227,  2.324,  2.421,  2.518,  2.615,  2.712,  2.809,  2.906,  3.003,  3.099,  3.196,  3.293,  3.390,  3.487,  3.584,  3.681,  3.778,  3.875,  3.972,  4.069,  4.166,  4.263,  4.360,  4.457,  4.554,  4.651,  4.748,  4.844,  4.941,  5.038,  5.135,  5.232,  5.329,  5.426,  5.523,  5.620,  5.717,  5.814,  5.911,  6.008,  6.105,  6.202,  6.299,  6.396,  6.493,  6.589,  6.686,  6.783,  6.880,  6.977,  7.074,  7.171,  7.268,  7.365,  7.462,  7.559,  7.656,  7.753,  7.850,  7.947,  8.044,  8.141
2011/08/05 00:00,    0.3,    0.2,    1.0,    1.1,    1.3,    1.9,    1.3,    1.0,    0.8,    1.9,    0.9,    1.6,    2.4,    3.5,    3.8,    3.4,    4.0,    4.4,    3.7,    2.7,    2.7,    1.8,    1.6,    1.7,    1.3,    0.7,    0.6,    0.7,    1.7,    1.2,    0.7,    0.9,    0.9,    0.5,   -0.7,   -0.4,   -0.5,   -1.1,   -0.7,   -0.4,    0.2,    0.4,  999.0,  999.0,  999.0,  999.0,  999.0,  999.0,  999.0,  999.0,  999.0,  999.0,  999.0,  999.0,  999.0,  999.0,  999.0,  999.0,  999.0,  999.0,  999.0,  999.0,  999.0,  999.0,  999.0,  999.0,  999.0,  999.0,  999.0,  999.0,  999.0,  999.0,  999.0,  999.0,  999.0,  999.0,  999.0,  999.0,  999.0,  999.0
2011/08/05 00:10,    0.2,    0.0,    0.4,    1.9,    2.0,    1.2,    1.3,    1.1,  999.0,  999.0,    2.1,    2.2,    3.6,    3.5,    4.2,    4.3,    4.1,    3.9,    3.7,    2.3,    2.0,    1.2,    1.1,    0.6,    0.8,    0.2,    0.6,    0.6,  999.0,    1.2,    0.7,    0.7,    0.6,    0.0,  999.0,  999.0,  999.0,   -1.9,   -0.8,   -0.7,   -0.0,    0.4,    0.8,  999.0,  999.0,  999.0,  999.0,  999.0,  999.0,  999.0,  999.0,  999.0,  999.0,  999.0,  999.0,  999.0,  999.0,  999.0,  999.0,  999.0,  999.0,  999.0,  999.0,  999.0,  999.0,  999.0,  999.0,  999.0,  999.0,  999.0,  999.0,  999.0,  999.0,  999.0,  999.0,  999.0,  999.0,  999.0,  999.0,  999.0
2011/08/05 00:20,    0.0,    0.1,    0.4,    1.7,    1.9,    0.9,    1.2,    1.5,    1.8,    1.3,    2.2,    2.4,    4.0,    4.6,    5.1,    5.0,    4.8,    4.2,    3.7,    2.9,    1.7,    0.5,    1.3,    1.8,    1.9,    0.9,    0.7,    1.1,    1.2,    1.0,    1.3,    1.7,    1.7,    1.1,    1.0,    1.2,    0.6,    0.0,    0.4,    0.4,    1.0,    1.7,  999.0,  999.0,  999.0,  999.0,  999.0,  999.0,  999.0,  999.0,  999.0,  999.0,  999.0,  999.0,  999.0,  999.0,  999.0,  999.0,  999.0,  999.0,  999.0,  999.0,  999.0,  999.0,  999.0,  999.0,  999.0,  999.0,  999.0,  999.0,  999.0,  999.0,  999.0,  999.0,  999.0,  999.0,  999.0,  999.0,  999.0,  999.0
2011/08/05 00:30,    0.1,   -0.0,    0.8,    1.9,    2.1,    1.7,    1.7,    0.8,    0.6,  999.0,    1.8,    2.8,    3.0,    2.1,    3.1,    4.1,    4.9,    4.9,    4.8,    4.8,    3.7,    1.0,    0.7,    1.3,    1.7,    0.6,    0.4,    0.6,    0.7,    0.7,    0.9,    1.2,    1.7,    1.1,    1.2,    1.0,    0.4,    0.3,  999.0,   -0.2,    0.4,    1.1,    1.8,    3.0,  999.0,  999.0,  999.0,  999.0,  999.0,  999.0,  999.0,  999.0,  999.0,  999.0,  999.0,  999.0,  999.0,  999.0,  999.0,  999.0,  999.0,  999.0,  999.0,  999.0,  999.0,  999.0,  999.0,  999.0,  999.0,  999.0,  999.0,  999.0,  999.0,  999.0,  999.0,  999.0,  999.0,  999.0,  999.0,  999.0
2011/08/05 00:40,    0.1,    0.1,    0.9,    2.4,    1.8,    0.8,    0.0,    0.4,    0.4,    1.4,    1.7,    1.7,    2.1,    2.2,    3.4,    4.0,    4.1,    4.3,    4.3,    4.0,    3.7,    1.6,    1.5,    1.9,    2.6,    0.9,    0.6,    1.1,    1.2,    0.7,    0.2,    0.2,    0.5,    0.6,    0.4,   -0.2,   -0.5,   -1.0,   -1.0,   -1.8,   -0.4,   -0.3,    0.7,    1.6,  999.0,  999.0,  999.0,  999.0,  999.0,  999.0,  999.0,  999.0,  999.0,  999.0,  999.0,  999.0,  999.0,  999.0,  999.0,  999.0,  999.0,  999.0,  999.0,  999.0,  999.0,  999.0,  999.0,  999.0,  999.0,  999.0,  999.0,  999.0,  999.0,  999.0,  999.0,  999.0,  999.0,  999.0,  999.0,  999.0
2011/08/05 00:50,    0.0,  999.0,    1.0,    1.9,    1.3,    0.6,   -0.5,   -0.5,   -0.1,    0.6,    1.8,    3.0,    2.5,    2.3,    2.9,    3.4,    3.4,    3.6,    4.0,    2.7,    1.0,    1.3,    1.4,    2.6,    3.9,    2.2,    2.2,    2.4,    2.8,    1.2,    0.1,    0.0,    0.2,    0.5,    0.3,   -0.2,  999.0,   -1.5,   -1.5,   -2.0,   -1.4,   -1.6,   -1.3,    0.6,  999.0,  999.0,  999.0,  999.0,  999.0,  999.0,  999.0,  999.0,  999.0,  999.0,  999.0,  999.0,  999.0,  999.0,  999.0,  999.0,  999.0,  999.0,  999.0,  999.0,  999.0,  999.0,  999.0,  999.0,  999.0,  999.0,  999.0,  999.0,  999.0,  999.0,  999.0,  999.0,  999.0,  999.0,  999.0,  999.0
2011/08/05 01:00,    0.4,   -0.0,  999.0,    1.7,    1.5,    1.0,    0.2,    0.5,   -0.0,   -0.5,    0.6,    1.4,    2.0,    1.6,    2.2,    2.2,    2.1,    1.8,    2.1,    2.3,    1.0,    0.2,    0.5,    0.1,    2.3,    1.8,    0.4,    0.5,    0.8,    1.2,    0.9,   -0.3,   -0.7,   -0.5,   -0.5,   -0.9,   -3.1,   -2.4,   -3.4,   -3.6,   -3.8,   -3.5,   -3.0,   -1.7,   -1.6,  999.0,  999.0,  999.0,  999.0,  999.0,  999.0,  999.0,  999.0,  999.0,  999.0,  999.0,  999.0,  999.0,  999.0,  999.0,  999.0,  999.0,  999.0,  999.0,  999.0,  999.0,  999.0,  999.0,  999.0,  999.0,  999.0,  999.0,  999.0,  999.0,  999.0,  999.0,  999.0,  999.0,  999.0,  999.0
2011/08/05 01:10,    0.1,   -0.1,  999.0,    0.9,    0.6,    0.6,    1.0,    1.2,    0.1,    0.3,    0.4,    1.9,    2.3,    2.8,    2.6,    2.0,    1.3,    0.7,    1.4,    1.9,    1.2,    0.3,    0.5,    0.2,    0.9,    0.4,    0.4,    0.3,    0.2,    0.7,    0.2,   -0.3,   -1.0,   -0.5,   -1.3,   -1.2,   -2.1,   -3.2,   -3.3,   -3.3,   -3.1,   -2.5,   -1.9,   -1.1,  999.0,  999.0,  999.0,  999.0,  999.0,  999.0,  999.0,  999.0,  999.0,  999.0,  999.0,  999.0,  999.0,  999.0,  999.0,  999.0,  999.0,  999.0,  999.0,  999.0,  999.0,  999.0,  999.0,  999.0,  999.0,  999.0,  999.0,  999.0,   -0.0,  999.0,  999.0,    0.0,  999.0,  999.0,  999.0,  999.0
2011/08/05 01:20,  999.0,  999.0,  999.0,    0.6,    0.9,    1.3,    1.2,    1.1,    1.4,    1.2,    0.9,    1.8,    1.7,    1.9,    2.2,    2.6,    3.0,    3.3,    3.2,    2.7,    2.6,    1.7,    0.2,    0.2,    0.1,    0.0,   -0.1,    0.1,  999.0,    1.8,    0.6,    0.7,   -0.3,   -0.5,   -0.4,   -1.0,   -1.3,   -1.9,   -3.2,   -3.5,   -3.1,   -2.0,   -0.9,  999.0,  999.0,  999.0,  999.0,  999.0,  999.0,  999.0,  999.0,  999.0,  999.0,  999.0,  999.0,  999.0,  999.0,  999.0,  999.0,  999.0,  999.0,  999.0,  999.0,  999.0,  999.0,  999.0,  999.0,  999.0,  999.0,  999.0,  999.0,  999.0,  999.0,  999.0,  999.0,  999.0,  999.0,  999.0,  999.0,  999.0
2011/08/05 01:30,   -0.1,    0.3,    1.1,    1.2,    1.4,    0.8,    0.9,    1.3,    1.2,    2.1,  999.0,    1.9,    1.8,    2.2,    2.8,    3.5,    3.5,    3.9,    4.0,    4.1,    1.7,    0.9,    0.5,    0.2,    1.5,    0.3,    0.0,    0.1,    0.6,    1.1,    0.4,    0.2,   -0.1,   -0.9,   -0.6,   -0.5,   -1.0,   -1.9,   -2.4,   -3.3,   -3.3,   -2.3,   -1.7,   -1.8,  999.0,  999.0,  999.0,    1.7,    2.9,  999.0,  999.0,  999.0,  999.0,  999.0,  999.0,  999.0,  999.0,  999.0,  999.0,  999.0,  999.0,  999.0,  999.0,  999.0,  999.0,  999.0,  999.0,  999.0,  999.0,  999.0,  999.0,  999.0,  999.0,  999.0,  999.0,  999.0,  999.0,  999.0,  999.0,  999.0
2011/08/05 01:40,   -0.2,    0.1,  999.0,    2.5,    1.6,    1.1,    1.3,    1.7,    1.4,    1.4,    0.9,    1.1,    1.1,    2.0,    2.7,    2.8,    3.1,    3.3,    3.9,    3.8,    2.4,    1.6,    1.0,    2.2,    2.8,    2.8,    1.4,    2.3,    1.4,    1.2,    0.1,    0.6,    0.1,   -0.5,   -0.6,   -0.4,   -0.7,   -1.6,   -1.6,   -2.3,   -3.2,   -1.6,   -1.7,   -1.6,  999.0,  999.0,  999.0,    1.1,    2.3,    2.7,    3.5,  999.0,  999.0,    5.2,  999.0,  999.0,  999.0,  999.0,  999.0,  999.0,  999.0,  999.0,  999.0,  999.0,  999.0,  999.0,  999.0,  999.0,  999.0,  999.0,  999.0,  999.0,  999.0,  999.0,  999.0,  999.0,  999.0,  999.0,  999.0,  999.0
2011/08/05 01:50,    0.4,    0.1,    1.9,    2.4,    2.1,    2.3,    2.3,    2.0,    2.2,    1.1,    0.9,    1.2,    1.3,    1.7,    2.1,    2.5,    3.0,    3.4,    3.9,    3.0,    1.7,    1.3,    1.4,    2.0,    2.5,    2.2,    2.5,    1.7,    2.8,    0.3,    0.1,    0.6,    0.7,   -0.1,   -0.5,   -0.5,   -0.7,   -0.9,   -1.3,   -2.1,   -2.5,   -2.6,   -2.1,   -1.4,  999.0,  999.0,  999.0,    1.0,    1.6,    1.9,    2.9,    4.0,    4.9,  999.0,  999.0,  999.0,  999.0,  999.0,  999.0,  999.0,  999.0,  999.0,  999.0,  999.0,  999.0,  999.0,  999.0,  999.0,  999.0,  999.0,  999.0,  999.0,  999.0,  999.0,  999.0,  999.0,  999.0,  999.0,  999.0,  999.0
2011/08/05 02:00,    0.1,   -0.0,    1.9,    3.3,    2.9,    3.1,    2.2,    0.5,    0.4,   -0.1,   -0.4,    0.7,    1.5,    2.5,    3.2,    3.5,    3.2,    3.5,    3.5,    2.5,    1.8,    1.2,    1.3,    2.7,    2.8,    2.9,    2.3,    3.4,    3.4,    3.3,    2.2,    0.0,    0.5,    0.0,   -0.7,   -1.0,   -1.3,   -1.5,   -2.2,   -2.5,   -2.9,   -3.5,  999.0,   -2.1,   -2.4,   -1.6,  999.0,    0.9,    1.1,    1.7,  999.0,    3.5,    3.9,  999.0,  999.0,  999.0,  999.0,  999.0,  999.0,  999.0,  999.0,  999.0,  999.0,  999.0,  999.0,  999.0,  999.0,  999.0,  999.0,  999.0,  999.0,  999.0,  999.0,  999.0,  999.0,  999.0,  999.0,  999.0,  999.0,  999.0
2011/08/05 02:10,    0.0,   -0.1,    1.4,    2.7,  999.0,    1.4,    0.7,   -0.3,   -1.0,   -0.6,    0.1,    0.8,    2.8,    3.7,    3.8,    3.4,    2.7,    3.2,    2.7,    3.0,    1.6,    1.0,    0.6,    1.7,    2.6,    2.9,    2.6,    2.6,    3.3,    1.7,    3.2,    2.6,    0.5,    0.6,   -0.0,   -0.1,   -0.6,   -0.9,   -1.1,   -2.3,   -2.3,  999.0,  999.0,   -2.8,   -2.0,   -1.6,   -1.5,   -0.4,    0.5,    0.7,  999.0,  999.0,    3.4,    4.3,  999.0,  999.0,  999.0,  999.0,  999.0,  999.0,  999.0,  999.0,  999.0,  999.0,  999.0,  999.0,  999.0,  999.0,  999.0,  999.0,  999.0,  999.0,  999.0,  999.0,  999.0,  999.0,  999.0,  999.0,  999.0,  999.0
2011/08/05 02:20,   -0.0,    0.4,    1.6,    2.4,    1.9,    2.1,    1.5,    0.0,   -1.0,   -0.4,   -0.2,    1.4,    3.2,    3.9,    4.2,    4.0,    3.5,    2.7,    2.5,    2.8,    3.2,    2.5,    1.7,    3.4,    3.5,    3.3,  999.0,    3.1,    3.7,    2.4,    4.0,    3.5,    2.8,    2.4,    2.3,    1.8,    0.6,   -0.1,  999.0,   -1.5,  999.0,  999.0,   -3.0,   -2.7,   -2.4,   -2.0,   -1.8,   -1.4,   -0.5,   -0.4,  999.0,    1.9,    2.8,    3.4,    4.0,  999.0,  999.0,  999.0,  999.0,  999.0,  999.0,  999.0,  999.0,  999.0,  999.0,  999.0,  999.0,  999.0,  999.0,  999.0,  999.0,  999.0,  999.0,  999.0,  999.0,  999.0,  999.0,  999.0,  999.0,  999.0
2011/08/05 02:30,    0.1,  999.0,    1.6,    2.4,    1.5,    1.9,    1.2,    0.9,    0.2,   -0.2,    0.0,    1.5,    2.5,    3.2,    3.3,    3.2,    3.2,    2.7,    3.0,    3.6,    3.1,    2.7,    2.6,    3.5,    3.4,    3.5,    3.6,    3.5,    5.2,    4.5,    3.8,    3.6,    3.6,    3.1,    3.0,    2.4,    1.9,    1.1,    0.7,    0.1,  999.0,  999.0,  999.0,  999.0,   -0.5,   -1.7,   -1.5,   -1.1,   -0.6,   -0.0,    0.5,  999.0,  999.0,    2.6,    3.1,    3.5,  999.0,  999.0,  999.0,  999.0,  999.0,  999.0,  999.0,  999.0,  999.0,  999.0,  999.0,  999.0,  999.0,  999.0,  999.0,  999.0,  999.0,  999.0,  999.0,  999.0,  999.0,  999.0,  999.0,  999.0
2011/08/05 02:40,   -0.0,  999.0,  999.0,    2.4,    2.9,    2.6,    1.8,    1.0,    0.3,   -0.6,   -0.2,    0.1,    1.7,    2.0,    2.2,    2.1,    3.0,    3.3,    2.6,    2.4,    1.6,    0.6,    0.4,    1.1,    3.2,    3.0,    1.6,  999.0,    2.7,    2.0,    3.8,    4.7,    4.4,    4.7,    4.0,    3.0,    2.5,    1.4,    0.5,    0.1,  999.0,  999.0,  999.0,  999.0,   -1.1,   -0.8,   -1.3,   -1.2,   -0.8,   -0.3,    0.1,  999.0,    1.8,    2.3,    3.2,  999.0,  999.0,  999.0,  999.0,  999.0,  999.0,  999.0,  999.0,  999.0,  999.0,  999.0,  999.0,  999.0,  999.0,  999.0,  999.0,  999.0,  999.0,  999.0,  999.0,  999.0,  999.0,  999.0,  999.0,  999.0
2011/08/05 02:50,    0.0,   -0.1,    0.5,    2.8,    3.1,    2.7,    1.7,   -0.6,    0.6,    0.5,    0.4,    1.1,    1.8,    1.9,    2.2,    2.7,    3.1,    3.4,    3.5,    2.2,    2.1,    2.3,    1.8,  999.0,    3.1,    4.0,    5.3,    5.7,  999.0,    2.5,    5.0,    4.8,    4.8,    4.9,    4.6,    3.6,    2.5,    1.7,    0.9,    0.5,   -0.0,  999.0,  999.0,   -1.0,   -0.7,   -0.4,   -1.0,   -0.7,  999.0,    0.5,  999.0,  999.0,    1.7,    2.8,    2.9,  999.0,  999.0,  999.0,  999.0,  999.0,  999.0,  999.0,  999.0,  999.0,  999.0,  999.0,  999.0,  999.0,  999.0,  999.0,  999.0,  999.0,  999.0,  999.0,  999.0,  999.0,  999.0,  999.0,  999.0,  999.0
2011/08/05 03:00,   -0.0,    0.1,    0.9,    2.4,    0.9,  999.0,  999.0,  999.0,   -0.1,    1.3,    1.9,    2.4,    2.9,    3.1,    3.0,    3.3,    4.0,    4.8,    4.2,    2.9,    2.6,    2.5,    3.9,    4.5,    3.7,  999.0,    5.4,    5.3,    5.6,  999.0,    3.3,    5.8,    5.9,    5.2,    4.6,    4.3,    2.8,    1.6,    0.5,   -0.4,   -0.8,  999.0,   -1.2,   -1.1,   -0.8,   -0.3,   -0.5,   -0.2,    0.1,   -0.2,  999.0,  999.0,    3.4,    3.7,    4.2,  999.0,  999.0,  999.0,  999.0,  999.0,  999.0,  999.0,  999.0,  999.0,  999.0,  999.0,  999.0,  999.0,  999.0,  999.0,  999.0,  999.0,  999.0,  999.0,  999.0,  999.0,  999.0,  999.0,  999.0,  999.0
2011/08/05 03:10,    0.0,    0.0,    0.7,    2.1,    1.2,    1.3,    0.8,  999.0,    0.3,    1.6,    1.7,    1.3,    3.1,    3.6,    3.5,    1.9,    4.0,    4.5,    4.7,  999.0,    1.6,    1.4,    1.9,    1.6,    3.0,    3.4,    2.7,    2.9,    3.3,    2.5,    2.0,    3.5,    4.2,    3.7,    3.6,    2.6,    2.1,    0.7,   -0.3,   -1.2,   -1.7,   -2.3,   -2.0,   -1.1,   -0.5,   -0.6,   -0.2,   -0.2,    0.3,    0.4,  999.0,  999.0,  999.0,    3.4,    3.9,  999.0,  999.0,  999.0,  999.0,  999.0,  999.0,  999.0,  999.0,  999.0,  999.0,  999.0,  999.0,  999.0,  999.0,  999.0,  999.0,  999.0,  999.0,  999.0,  999.0,  999.0,  999.0,  999.0,  999.0,  999.0
2011/08/05 03:20,   -0.0,    0.1,    0.4,    0.8,    0.7,    0.3,   -1.0,  999.0,    0.5,    1.1,    0.5,    1.3,    2.5,    3.5,    4.1,    4.1,    5.0,    5.5,    5.0,    4.9,    3.6,    3.3,    3.6,  999.0,    4.1,    3.7,    4.4,    4.0,    3.4,    2.9,    3.2,    3.3,    4.2,    4.0,    3.0,    2.5,    1.7,    1.4,    0.2,   -0.5,  999.0,  999.0,  999.0,  999.0,   -0.3,    0.3,    0.1,    0.4,    1.3,  999.0,    1.1,  999.0,    3.2,    3.3,    4.3,  999.0,  999.0,  999.0,  999.0,  999.0,  999.0,  999.0,  999.0,  999.0,  999.0,  999.0,  999.0,  999.0,  999.0,  999.0,  999.0,  999.0,  999.0,  999.0,  999.0,  999.0,  999.0,  999.0,  999.0,  999.0
2011/08/05 03:30,    0.1,    0.1,   -0.1,    0.2,   -0.1,   -0.3,    0.2,    0.4,    1.2,    2.0,    1.1,    1.6,    2.9,    3.3,    4.2,    4.1,    4.7,    5.1,    5.7,    5.9,  999.0,  999.0,  999.0,  999.0,    3.9,    3.8,    4.4,    3.6,    3.8,    3.4,    3.2,    4.1,    4.2,    4.1,  999.0,    2.8,    1.3,    0.9,    0.7,    0.4,    0.2,   -0.6,  999.0,   -0.3,    0.1,    0.7,  999.0,    0.3,   -0.2,   -0.0,   -0.2,    0.8,  999.0,    2.0,  999.0,  999.0,  999.0,  999.0,  999.0,  999.0,  999.0,  999.0,  999.0,  999.0,  999.0,  999.0,  999.0,  999.0,  999.0,  999.0,  999.0,  999.0,  999.0,  999.0,  999.0,  999.0,  999.0,  999.0,  999.0,  999.0
2011/08/05 03:40,    0.1,   -0.0,   -0.0,    0.2,    0.2,    0.1,    1.6,    2.5,    2.5,    2.6,    1.2,    1.9,    3.6,    4.1,    4.0,    2.3,    2.9,  999.0,  999.0,    0.0,  999.0,  999.0,  999.0,  999.0,    3.3,    4.0,    3.1,    4.3,  999.0,  999.0,    4.0,  999.0,  999.0,  999.0,    3.4,    2.6,    1.5,    1.2,    0.9,    0.4,    0.3,    0.1,   -0.1,  999.0,    1.3,    2.1,    2.4,  999.0,    1.2,    1.2,    1.3,  999.0,  999.0,    3.2,  999.0,  999.0,  999.0,  999.0,  999.0,  999.0,  999.0,  999.0,  999.0,  999.0,  999.0,  999.0,  999.0,  999.0,  999.0,  999.0,  999.0,  999.0,  999.0,  999.0,  999.0,  999.0,  999.0,  999.0,  999.0,  999.0
2011/08/05 03:50,    0.0,   -0.1,    0.1,    0.2,    0.4,    1.6,    2.2,    3.4,    3.5,    3.2,    1.3,    3.0,    4.7,    4.3,    4.4,  999.0,    0.7,    0.3,    0.0,   -0.1,  999.0,    0.1,    0.0,    0.0,    0.3,    0.3,    0.5,    0.6,  999.0,  999.0,  999.0,  999.0,  999.0,  999.0,    3.8,    3.2,    2.1,    1.5,    0.9,    0.8,    1.2,    1.0,    1.1,   -0.8,    0.2,  999.0,  999.0,  999.0,  999.0,    1.2,  999.0,    1.4,    2.5,    2.6,  999.0,  999.0,  999.0,  999.0,  999.0,  999.0,  999.0,  999.0,  999.0,  999.0,  999.0,  999.0,  999.0,  999.0,  999.0,  999.0,  999.0,  999.0,  999.0,  999.0,  999.0,  999.0,  999.0,  999.0,  999.0,  999.0
2011/08/05 04:00,   -0.0,   -0.0,    0.3,    0.7,    1.3,    1.7,    2.6,    3.2,    3.5,    3.9,    2.2,    2.1,    3.7,    3.4,    3.4,    2.6,    2.9,    3.7,    3.0,    0.0,  999.0,  999.0,    0.1,    0.0,    0.3,    0.4,    0.3,    0.2,    1.1,    2.0,    2.5,  999.0,  999.0,    2.6,  999.0,    2.5,    1.8,    0.5,    0.5,    0.6,    0.6,    0.8,    0.1,    0.3,   -0.2,    0.6,    1.0,    1.3,  999.0,    1.6,    1.7,  999.0,    1.6,    2.2,    2.5,  999.0,  999.0,  999.0,  999.0,  999.0,  999.0,  999.0,  999.0,  999.0,  999.0,  999.0,  999.0,  999.0,  999.0,  999.0,  999.0,  999.0,  999.0,  999.0,  999.0,  999.0,  999.0,  999.0,  999.0,  999.0
2011/08/05 04:10,   -0.0,   -0.1,    0.4,    1.0,    1.3,    2.2,    2.7,    3.3,    3.7,    3.7,    3.1,    2.2,    3.5,    3.3,    3.7,    3.9,    4.2,    4.9,  999.0,  999.0,  999.0,  999.0,   -0.0,    0.0,    0.1,    0.3,    0.1,    1.2,    2.5,    1.5,    1.5,    3.0,    3.1,    3.5,    2.0,    2.6,    1.4,    0.9,    0.6,    0.1,    0.0,   -0.0,  999.0,  999.0,    0.6,  999.0,  999.0,  999.0,  999.0,    0.2,    1.0,    0.8,    2.0,    2.5,    2.4,  999.0,  999.0,  999.0,  999.0,  999.0,  999.0,  999.0,  999.0,  999.0,  999.0,  999.0,  999.0,  999.0,  999.0,  999.0,  999.0,  999.0,  999.0,  999.0,  999.0,  999.0,  999.0,  999.0,  999.0,  999.0
2011/08/05 04:20,   -0.1,    0.1,    0.3,    0.8,    1.4,    2.6,    2.8,    3.0,    2.4,    2.6,    2.4,    2.2,    2.3,    2.3,    2.5,    3.1,    4.3,    5.7,  999.0,    1.7,    0.8,    0.2,    0.2,    0.3,    1.1,    0.7,    0.7,    0.8,    1.1,    0.6,    1.4,    2.7,    3.1,    3.0,    2.6,    2.6,    2.6,    1.9,    1.3,    0.7,    0.2,   -0.2,  999.0,  999.0,    1.2,  999.0,  999.0,  999.0,  999.0,  999.0,    1.0,    1.1,    1.9,    2.5,    3.5,    2.4,  999.0,  999.0,  999.0,  999.0,  999.0,  999.0,  999.0,  999.0,  999.0,  999.0,  999.0,  999.0,  999.0,  999.0,  999.0,  999.0,  999.0,  999.0,  999.0,  999.0,  999.0,  999.0,  999.0,  999.0
2011/08/05 04:30,   -0.0,   -0.0,    0.0,    0.9,    1.6,    2.0,    2.9,    3.5,    3.9,    3.6,    3.5,    3.6,    3.6,    3.1,    2.9,    2.1,    3.7,  999.0,  999.0,    0.7,    0.2,    0.1,   -0.0,    0.4,    0.8,    1.0,    1.1,    3.1,    2.3,    0.5,    0.9,    2.2,    3.3,    3.9,    3.3,    3.1,    2.6,    1.7,    0.4,   -0.2,   -0.5,   -0.7,   -0.5,  999.0,   -0.1,  999.0,  999.0,  999.0,  999.0,    0.2,    0.5,    1.3,    2.4,    2.7,    3.7,  999.0,  999.0,  999.0,  999.0,  999.0,  999.0,  999.0,  999.0,  999.0,  999.0,  999.0,  999.0,  999.0,  999.0,  999.0,  999.0,  999.0,  999.0,  999.0,  999.0,  999.0,  999.0,  999.0,  999.0,  999.0
2011/08/05 04:40,   -0.1,   -0.0,    0.1,    0.8,    1.3,    2.2,    3.0,    3.9,    3.9,    4.9,    3.6,    4.5,    4.6,    4.3,    3.6,    4.4,    3.9,  999.0,    4.7,    0.1,  999.0,  999.0,    0.2,   -0.1,  999.0,  999.0,  999.0,    4.3,    4.3,    1.2,    1.1,    1.3,    3.7,    4.1,    3.9,    3.7,    3.4,    1.9,    1.0,    0.3,    0.2,   -0.1,    0.0,    0.1,   -0.2,  999.0,  999.0,  999.0,  999.0,    0.6,  999.0,    1.5,    2.3,  999.0,    2.7,    2.8,  999.0,  999.0,  999.0,  999.0,  999.0,  999.0,  999.0,  999.0,  999.0,  999.0,  999.0,  999.0,  999.0,  999.0,  999.0,  999.0,  999.0,  999.0,  999.0,  999.0,  999.0,  999.0,  999.0,  999.0
2011/08/05 04:50,   -0.0,   -0.0,    0.1,    0.9,    1.1,    2.3,    3.0,    3.4,    4.2,    4.7,  999.0,  999.0,  999.0,    2.3,    1.5,    0.9,    0.7,    1.2,    1.3,    0.3,    0.0,    0.0,   -0.0,    0.0,    1.1,  999.0,    0.6,    2.7,    2.5,    0.4,    0.2,    0.9,    3.0,    3.0,    3.6,    3.9,    3.1,    2.2,    2.1,    1.5,    1.2,    1.2,    1.2,    1.0,    1.2,  999.0,    0.5,    0.4,    1.1,    0.5,    0.9,    1.5,    2.5,    1.9,    3.6,    2.1,  999.0,  999.0,  999.0,  999.0,  999.0,  999.0,  999.0,  999.0,  999.0,  999.0,  999.0,  999.0,  999.0,  999.0,  999.0,  999.0,  999.0,  999.0,  999.0,  999.0,  999.0,  999.0,  999.0,  999.0
2011/08/05 05:00,   -0.1,    0.1,    0.1,    0.5,    0.9,    3.0,    3.7,    4.5,    5.0,    5.4,  999.0,  999.0,  999.0,    0.9,    1.2,    0.1,    0.5,    0.5,    1.1,    0.3,   -0.1,   -0.0,   -0.0,    0.1,    1.0,    0.2,    0.7,    1.5,    1.6,    0.4,    0.4,    0.1,    0.7,    0.5,    2.3,    2.3,    2.0,    1.6,    1.4,    1.4,    1.1,    1.8,    0.8,    0.7,    1.6,  999.0,    1.8,    0.6,    2.0,    1.5,    2.5,    2.4,  999.0,  999.0,    4.5,    2.0,  999.0,  999.0,  999.0,  999.0,  999.0,  999.0,  999.0,  999.0,  999.0,  999.0,  999.0,  999.0,  999.0,  999.0,  999.0,  999.0,  999.0,  999.0,  999.0,  999.0,  999.0,  999.0,  999.0,  999.0
2011/08/05 05:10,    0.0,   -0.0,    0.3,    0.8,    1.3,    3.3,    3.6,    4.4,    4.9,    5.1,    4.1,  999.0,    5.8,  999.0,  999.0,    1.8,    2.2,    2.1,  999.0,    0.0,   -0.0,   -0.0,   -0.0,   -0.0,    0.6,    0.5,    0.8,    1.5,    1.0,    0.5,    0.4,    0.2,    0.2,    0.1,    0.8,    2.0,    2.6,    2.8,    2.8,    3.4,    3.2,    1.5,    0.9,    0.9,    1.4,  999.0,  999.0,  999.0,    2.0,    0.7,  999.0,    2.5,    3.1,  999.0,  999.0,  999.0,  999.0,  999.0,  999.0,  999.0,  999.0,  999.0,  999.0,  999.0,  999.0,  999.0,  999.0,  999.0,  999.0,  999.0,  999.0,  999.0,  999.0,  999.0,  999.0,  999.0,  999.0,  999.0,  999.0,  999.0
2011/08/05 05:20,    0.0,    0.1,    0.2,    0.6,    0.6,    2.6,    4.0,    4.6,    5.3,    5.4,    4.1,    5.4,    6.0,    5.8,    5.9,    6.6,  999.0,  999.0,  999.0,    0.0,   -0.0,    0.0,    0.0,    0.0,    0.5,    0.4,    0.3,    0.9,    0.5,    0.5,    0.1,    0.4,    0.7,    0.6,    1.0,    1.3,    1.8,    1.8,    2.2,    1.8,    1.2,   -0.0,    0.0,    0.3,    0.8,  999.0,    0.7,  999.0,  999.0,    2.9,    2.8,    2.8,    2.2,    4.2,  999.0,  999.0,  999.0,  999.0,  999.0,  999.0,  999.0,  999.0,  999.0,  999.0,  999.0,  999.0,  999.0,  999.0,  999.0,  999.0,  999.0,  999.0,  999.0,  999.0,  999.0,  999.0,  999.0,  999.0,  999.0,  999.0
2011/08/05 05:30,   -0.0,   -0.0,    0.4,    1.7,    2.3,    4.0,    4.9,    5.4,    5.7,    5.7,    4.5,    5.2,    5.7,    6.0,    5.0,  999.0,  999.0,  999.0,   -0.0,   -0.1,    0.0,   -0.0,   -0.0,    0.1,    0.5,    0.4,    0.2,    0.8,    0.5,    0.9,    0.8,    0.5,    0.7,    1.1,    1.7,    1.4,    1.3,    2.3,    2.5,    2.1,    1.5,    0.8,    0.8,    1.5,    1.3,    1.7,    2.0,  999.0,   -0.0,    2.9,    1.6,  999.0,    2.2,    2.3,  999.0,  999.0,  999.0,  999.0,  999.0,  999.0,  999.0,  999.0,  999.0,  999.0,  999.0,  999.0,  999.0,  999.0,  999.0,  999.0,  999.0,  999.0,  999.0,  999.0,  999.0,  999.0,  999.0,  999.0,  999.0,  999.0
2011/08/05 05:40,    0.1,    0.1,    0.2,    0.5,    1.6,    4.1,    4.8,    5.5,    5.5,    5.5,    4.2,  999.0,    6.1,  999.0,    0.6,    1.1,    0.6,    1.8,    0.5,   -0.0,    0.1,   -0.0,   -0.0,    0.1,    0.4,    1.5,  999.0,    2.6,    0.8,    0.2,    0.4,    0.5,    0.4,    0.4,    1.2,    1.3,    1.7,    1.5,    1.4,    1.0,    0.2,   -0.7,   -0.6,   -0.3,    0.2,    0.9,    0.9,    0.0,  999.0,    1.7,    2.4,    3.1,    3.4,    2.9,  999.0,  999.0,  999.0,  999.0,  999.0,  999.0,  999.0,  999.0,  999.0,  999.0,  999.0,  999.0,  999.0,  999.0,  999.0,  999.0,  999.0,  999.0,  999.0,  999.0,  999.0,  999.0,  999.0,  999.0,  999.0,  999.0
2011/08/05 05:50,    0.8,   -0.1,    1.6,    2.4,    2.3,    3.6,    4.3,    4.4,    5.0,    5.5,    5.1,    5.6,    6.4,    5.3,    6.0,    6.7,    7.5,    7.8,  999.0,  999.0,  999.0,  999.0,   -0.0,   -0.0,    0.0,    0.1,    0.4,    0.2,    1.9,    0.7,    0.2,    0.2,    0.1,   -0.1,    0.0,    0.2,    0.5,    0.6,    0.6,    0.3,   -0.1,   -0.3,   -0.5,   -0.1,    0.2,    1.1,    1.3,    1.2,    1.7,    1.2,  999.0,    3.4,    3.1,    3.2,  999.0,  999.0,  999.0,  999.0,  999.0,    0.0,  999.0,  999.0,  999.0,  999.0,  999.0,  999.0,  999.0,  999.0,  999.0,  999.0,  999.0,  999.0,  999.0,  999.0,  999.0,  999.0,  999.0,  999.0,  999.0,  999.0
2011/08/05 06:00,    0.1,  999.0,  999.0,    1.5,    3.3,    4.0,    4.9,    5.0,    5.1,    5.3,    5.4,  999.0,    6.1,  999.0,  999.0,    4.0,    3.8,    3.7,    4.3,  999.0,  999.0,  999.0,   -0.0,    0.0,    0.0,    0.0,    0.1,    0.2,    0.3,    0.2,    0.2,    0.2,    0.3,    0.3,    0.3,  999.0,    1.0,    1.3,    1.2,    0.9,    0.7,    0.5,    0.3,    0.1,    0.2,    0.6,    1.1,    1.7,  999.0,    2.0,  999.0,    4.2,    4.2,    3.0,  999.0,  999.0,  999.0,  999.0,  999.0,  999.0,  999.0,  999.0,  999.0,  999.0,  999.0,  999.0,  999.0,  999.0,  999.0,  999.0,  999.0,  999.0,  999.0,  999.0,  999.0,  999.0,  999.0,  999.0,  999.0,  999.0
2011/08/05 06:10,   -0.1,    0.1,    0.3,    3.2,  999.0,    6.3,    6.6,    6.8,    6.2,    6.4,    6.0,    6.8,    7.8,    8.2,    8.4,    7.6,  999.0,    7.7,  999.0,  999.0,  999.0,    0.1,    0.0,    0.1,    0.1,    0.0,    0.4,    0.1,    0.2,    0.1,    0.9,    0.3,    0.1,    0.2,    0.3,    0.3,    0.5,    0.8,    1.0,    1.0,    0.8,    0.2,    0.0,   -0.4,   -0.0,   -0.1,    0.7,    1.0,    1.7,  999.0,  999.0,  999.0,    3.4,  999.0,  999.0,  999.0,  999.0,  999.0,  999.0,  999.0,  999.0,  999.0,  999.0,  999.0,  999.0,  999.0,  999.0,  999.0,  999.0,  999.0,  999.0,  999.0,  999.0,  999.0,  999.0,  999.0,  999.0,  999.0,  999.0,  999.0
2011/08/05 06:20,  999.0,  999.0,    2.2,    4.3,    4.4,    4.9,    4.7,    5.4,    6.1,    6.4,    7.1,    7.6,    7.9,    7.5,    7.9,    8.1,    8.0,    8.2,    8.5,  999.0,  999.0,  999.0,   -0.0,   -0.1,  999.0,    0.1,    0.2,    0.8,    0.5,    0.2,    0.7,    1.3,  999.0,    0.2,    0.2,   -0.1,    0.6,    0.5,    1.2,    1.0,    0.5,    0.4,    0.3,    0.1,   -0.2,    0.1,    1.1,    1.4,    1.5,  999.0,  999.0,  999.0,  999.0,  999.0,  999.0,  999.0,  999.0,  999.0,  999.0,  999.0,  999.0,  999.0,  999.0,  999.0,  999.0,  999.0,  999.0,  999.0,  999.0,  999.0,  999.0,  999.0,  999.0,  999.0,  999.0,  999.0,  999.0,  999.0,  999.0,  999.0
2011/08/05 06:30,  999.0,  999.0,    4.4,    3.7,    3.7,    5.0,    5.0,    6.3,    6.8,    7.6,    8.0,    8.4,    8.6,    8.5,    7.9,    7.8,    8.2,    7.6,    7.7,  999.0,  999.0,  999.0,  999.0,  999.0,  999.0,  999.0,    0.7,  999.0,    0.4,    1.4,    2.0,    1.9,    0.8,    0.3,    0.4,    0.2,    0.4,    0.6,    1.7,    1.2,    1.2,    0.7,  999.0,    0.4,    0.5,    0.4,    1.1,    1.6,    2.1,    2.5,  999.0,    3.7,  999.0,  999.0,  999.0,  999.0,  999.0,  999.0,  999.0,  999.0,  999.0,  999.0,  999.0,  999.0,  999.0,  999.0,  999.0,  999.0,  999.0,  999.0,  999.0,  999.0,  999.0,  999.0,  999.0,  999.0,  999.0,  999.0,  999.0,  999.0
2011/08/05 06:40,    0.0,   -0.0,    0.1,    0.3,  999.0,  999.0,  999.0,    5.4,    6.0,    6.9,    7.4,    8.9,    9.6,    9.2,    8.5,    7.8,    7.7,    6.6,    6.9,  999.0,  999.0,  999.0,   -0.1,    0.0,    0.1,   -0.1,    0.1,   -0.0,    0.6,    0.1,    0.2,    0.4,    0.8,    0.7,    0.5,    0.6,   -0.1,    0.2,    0.4,    0.7,    1.0,    1.3,    1.6,    0.9,    1.1,    1.1,    1.4,    2.2,    1.8,    3.1,    3.7,    4.3,  999.0,    2.6,  999.0,  999.0,  999.0,  999.0,  999.0,  999.0,  999.0,  999.0,  999.0,  999.0,  999.0,  999.0,  999.0,  999.0,  999.0,  999.0,  999.0,  999.0,  999.0,  999.0,  999.0,  999.0,  999.0,  999.0,  999.0,  999.0
2011/08/05 06:50,   -0.0,   -0.1,  999.0,    3.0,    4.3,    5.7,    6.3,    6.5,    7.0,    7.0,    6.7,    7.3,    8.1,    8.0,    8.6,    8.5,    8.7,    8.1,  999.0,  999.0,    3.3,    1.2,   -0.0,   -0.0,   -0.0,    0.1,   -0.0,  999.0,   -0.1,  999.0,  999.0,  999.0,    1.1,    1.1,    1.1,    0.5,    0.5,    0.9,    1.4,    1.7,    1.2,    1.0,    1.2,    0.7,    0.6,    0.6,    1.4,    2.4,    3.0,    2.5,    2.8,    3.3,    2.7,    3.0,  999.0,  999.0,  999.0,  999.0,  999.0,  999.0,  999.0,  999.0,  999.0,  999.0,  999.0,  999.0,  999.0,  999.0,  999.0,  999.0,  999.0,  999.0,  999.0,  999.0,  999.0,  999.0,  999.0,  999.0,  999.0,  999.0
2011/08/05 07:00,  999.0,  999.0,    3.8,    4.0,    4.8,    5.7,    6.4,    6.9,    7.1,    7.3,    7.7,    8.1,    8.4,    8.6,    8.4,    7.5,    7.5,    6.9,    7.0,  999.0,    4.4,  999.0,    0.1,   -0.1,   -0.1,    0.0,    0.0,    0.3,   -0.2,  999.0,  999.0,    4.4,    3.5,    3.0,    2.4,    0.6,    0.4,  999.0,    1.4,    0.9,    1.7,    1.5,    1.1,    0.9,    0.4,   -0.0,    0.4,    1.5,    2.5,    2.2,    2.9,    3.0,    2.5,    2.5,  999.0,  999.0,  999.0,  999.0,  999.0,  999.0,  999.0,  999.0,  999.0,  999.0,  999.0,  999.0,  999.0,  999.0,  999.0,  999.0,  999.0,  999.0,  999.0,  999.0,  999.0,  999.0,  999.0,  999.0,  999.0,  999.0
2011/08/05 07:10,  999.0,  999.0,    4.4,    4.9,    5.2,    5.3,    5.9,    6.3,    6.4,    7.0,    7.6,    8.0,    8.6,    8.8,    8.9,    8.7,    8.9,    8.6,    8.2,    7.7,    6.0,  999.0,    3.9,    1.0,    0.0,    0.7,    0.5,    0.4,    0.1,    1.1,    2.6,    3.0,    3.3,    2.8,    2.3,    1.3,    0.2,   -0.2,  999.0,    0.3,    1.0,    1.3,    1.0,    0.4,    0.1,    0.0,    0.2,    1.3,    1.8,    2.3,    2.5,    2.7,    2.2,    2.2,  999.0,  999.0,  999.0,  999.0,  999.0,  999.0,  999.0,  999.0,  999.0,  999.0,  999.0,  999.0,  999.0,  999.0,  999.0,  999.0,  999.0,  999.0,  999.0,  999.0,  999.0,  999.0,  999.0,  999.0,  999.0,  999.0
2011/08/05 07:20,  999.0,  999.0,    3.9,    4.6,    4.5,    5.7,    7.2,    7.4,    8.0,    8.2,    9.1,    9.4,   10.0,   10.6,   10.5,   10.8,   11.1,   11.0,   10.1,   10.0,    9.3,    7.7,    7.5,    5.6,    4.9,    5.3,  999.0,  999.0,  999.0,    0.8,    0.7,    3.1,    2.5,    2.4,    2.2,    2.1,    1.5,    0.3,    0.0,  999.0,    0.8,    1.1,    1.5,    1.5,    1.3,    1.6,    0.9,    1.7,    2.4,    3.9,    3.5,    3.3,    3.3,  999.0,  999.0,  999.0,  999.0,  999.0,  999.0,  999.0,  999.0,  999.0,  999.0,  999.0,  999.0,  999.0,  999.0,  999.0,  999.0,  999.0,  999.0,  999.0,  999.0,  999.0,  999.0,  999.0,  999.0,  999.0,  999.0,  999.0
2011/08/05 07:30,    0.1,    0.0,    0.8,    4.9,    3.8,    5.2,    6.6,    7.7,    7.7,    7.9,    8.8,    9.1,    9.1,    9.7,   10.0,   10.2,   10.3,   10.3,   10.1,    9.6,    9.3,    8.8,    8.2,    7.4,  999.0,  999.0,  999.0,  999.0,    4.7,    3.2,    2.4,    1.2,    1.4,    0.8,    1.1,    1.0,    0.8,    0.6,    0.2,    0.2,    1.0,    1.2,    1.7,    1.5,    1.5,    1.4,    1.8,    3.0,    3.5,  999.0,  999.0,    3.7,    3.3,  999.0,  999.0,  999.0,  999.0,  999.0,  999.0,  999.0,  999.0,  999.0,  999.0,  999.0,  999.0,  999.0,  999.0,  999.0,  999.0,  999.0,  999.0,  999.0,  999.0,  999.0,  999.0,  999.0,  999.0,  999.0,  999.0,  999.0
2011/08/05 07:40,   -0.0,   -0.2,  999.0,  999.0,  999.0,  999.0,    4.2,    5.5,    7.5,    7.3,    7.5,    8.4,    8.6,    9.7,   10.0,   10.6,   10.9,   11.1,   11.0,   10.6,   10.5,   10.1,    9.2,    9.1,    8.6,    8.2,    8.0,    8.3,    6.8,  999.0,  999.0,    2.3,    3.9,    2.4,    2.3,    1.5,    0.7,    3.8,    3.0,    3.3,    3.6,    4.5,    4.4,    4.2,    4.1,    4.3,    4.2,    4.1,    5.8,    6.3,    6.2,    4.4,    3.5,    3.0,  999.0,  999.0,  999.0,  999.0,  999.0,  999.0,  999.0,  999.0,  999.0,  999.0,  999.0,  999.0,  999.0,  999.0,  999.0,  999.0,  999.0,  999.0,  999.0,  999.0,  999.0,  999.0,  999.0,  999.0,  999.0,  999.0
2011/08/05 07:50,  999.0,    3.3,    4.0,    4.9,    6.1,    6.9,    7.3,    7.6,    8.2,    8.1,    8.2,    8.3,    8.5,    8.9,    9.2,    9.2,    9.2,    9.0,    9.3,    9.4,    9.8,    9.4,    9.4,    8.9,    7.6,    7.8,    7.9,    7.9,    7.2,    7.5,    7.5,    7.3,    6.4,    5.2,    4.0,    3.7,    2.9,    3.6,    3.3,    3.2,    3.3,    3.2,    3.4,    3.1,    3.3,    3.3,    2.9,    3.0,    3.7,    4.1,    4.3,    3.7,    3.3,  999.0,  999.0,  999.0,  999.0,  999.0,  999.0,  999.0,  999.0,  999.0,  999.0,  999.0,  999.0,  999.0,  999.0,  999.0,  999.0,  999.0,  999.0,  999.0,  999.0,  999.0,  999.0,  999.0,  999.0,  999.0,  999.0,  999.0
2011/08/05 08:00,    2.0,    2.6,    3.9,    4.1,    6.5,    7.2,    7.9,    7.8,    8.4,    7.4,    6.4,    6.6,    6.8,    7.3,    7.2,    7.7,    7.7,    7.1,    7.3,    7.5,    7.7,    7.7,    7.5,  999.0,  999.0,  999.0,    5.8,    5.9,    6.7,    7.6,    7.8,    7.9,    8.5,    8.5,    9.3,    7.8,    6.7,    4.5,    2.7,    7.3,    3.2,    5.3,    5.8,    5.2,    3.4,    1.9,    3.8,    2.6,    3.6,    4.3,    4.0,    4.9,    3.4,  999.0,  999.0,  999.0,  999.0,  999.0,  999.0,  999.0,  999.0,  999.0,  999.0,  999.0,  999.0,  999.0,  999.0,  999.0,  999.0,  999.0,  999.0,  999.0,  999.0,  999.0,  999.0,  999.0,  999.0,  999.0,  999.0,  999.0
2011/08/05 08:10,    2.5,    4.0,    5.4,    6.1,    6.8,    7.6,    8.8,    8.6,    8.8,    8.7,    9.1,    8.0,    6.0,    6.4,    6.0,    8.8,    9.0,    8.5,    8.9,    9.3,   10.8,   10.8,   10.6,   10.5,   10.5,   10.2,   10.0,    9.8,    9.5,    9.1,    8.1,    7.6,    7.2,    7.2,    7.3,    7.4,    5.8,    7.1,    6.8,    5.2,    4.4,    4.3,    5.9,    5.9,    4.7,    2.9,    2.8,    2.8,    2.9,    3.6,    4.1,    5.0,    4.4,  999.0,  999.0,  999.0,  999.0,  999.0,  999.0,  999.0,  999.0,  999.0,  999.0,  999.0,  999.0,  999.0,  999.0,  999.0,  999.0,  999.0,  999.0,  999.0,  999.0,  999.0,  999.0,  999.0,  999.0,  999.0,  999.0,  999.0
2011/08/05 08:20,  999.0,  999.0,  999.0,  999.0,    6.7,    7.2,    8.0,    8.4,    9.0,    9.5,    9.3,    7.3,    9.4,    9.8,    6.7,   10.0,    9.5,    9.3,    9.1,    9.0,    9.2,    9.1,    9.2,    7.0,    3.8,    7.6,  999.0,  999.0,    4.3,    5.8,    9.6,    6.5,    7.2,    9.2,    8.4,    8.1,    8.0,    7.2,    6.5,    5.9,    4.9,    4.4,    2.9,    2.4,    2.9,    3.0,    2.8,    2.7,    2.6,    3.0,    3.5,    3.6,    3.5,    2.7,    3.6,  999.0,  999.0,  999.0,  999.0,  999.0,  999.0,  999.0,  999.0,  999.0,  999.0,  999.0,  999.0,  999.0,  999.0,  999.0,  999.0,  999.0,  999.0,  999.0,  999.0,  999.0,  999.0,  999.0,  999.0,  999.0
2011/08/05 08:30,  999.0,  999.0,  999.0,    5.2,    6.2,    7.9,    8.5,    9.0,    9.1,    9.3,    9.6,    9.5,    9.6,    9.5,    9.8,    9.2,    9.7,    9.6,    9.1,    8.4,    8.4,    8.4,    8.5,    8.2,  999.0,    6.8,  999.0,  999.0,    2.2,    0.3,    0.5,    0.4,    0.7,    2.1,    4.5,    4.7,    4.1,    4.0,    3.6,    3.2,    2.6,    2.0,    1.4,  999.0,    2.0,    2.1,    2.7,    3.1,    2.9,    3.5,    4.2,    4.2,  999.0,  999.0,  999.0,  999.0,  999.0,  999.0,  999.0,  999.0,  999.0,  999.0,  999.0,  999.0,  999.0,  999.0,  999.0,  999.0,  999.0,  999.0,  999.0,  999.0,  999.0,  999.0,  999.0,  999.0,  999.0,  999.0,  999.0,  999.0
2011/08/05 08:40,  999.0,  999.0,  999.0,    4.2,    5.7,    6.5,    7.7,    8.9,    8.7,    8.7,    9.1,    9.4,    9.4,    8.9,    8.6,    8.8,    8.7,    8.5,    8.3,    8.2,    8.4,    8.0,  999.0,    5.6,    6.3,    0.1,    0.0,   -0.1,    0.1,    0.1,    0.3,    0.5,    1.4,    1.1,  999.0,    4.8,    4.1,    3.6,    3.2,    2.7,    2.1,    1.8,    1.7,    1.8,    1.4,    1.7,    2.4,    3.1,    3.6,    5.1,    5.6,  999.0,  999.0,  999.0,  999.0,  999.0,  999.0,  999.0,  999.0,  999.0,  999.0,  999.0,  999.0,  999.0,  999.0,  999.0,  999.0,  999.0,  999.0,  999.0,  999.0,  999.0,  999.0,  999.0,  999.0,  999.0,  999.0,  999.0,  999.0,  999.0
2011/08/05 08:50,  999.0,  999.0,  999.0,    6.4,    8.1,    9.1,    9.1,    9.5,    9.7,    9.9,   10.2,   10.3,   10.5,   10.2,    9.7,    9.5,    9.4,    8.7,    8.6,    8.6,  999.0,  999.0,  999.0,    3.1,    0.4,    0.3,    0.3,    0.0,   -0.1,    0.1,    0.0,    0.1,  999.0,  999.0,    4.2,    4.9,    4.5,    3.5,    2.7,    1.9,    1.8,    1.8,    1.6,    1.8,    2.0,    2.5,    2.8,    3.3,    4.1,    5.0,    6.0,    6.4,  999.0,  999.0,  999.0,  999.0,  999.0,  999.0,  999.0,  999.0,  999.0,  999.0,  999.0,  999.0,  999.0,  999.0,  999.0,  999.0,  999.0,  999.0,  999.0,  999.0,  999.0,  999.0,  999.0,  999.0,  999.0,  999.0,  999.0,  999.0
2011/08/05 09:00,  999.0,  999.0,  999.0,    7.3,    8.1,    8.4,    8.4,    9.0,    9.6,    9.7,    9.5,    9.8,    9.9,   10.3,    9.9,    9.8,    9.9,   10.1,    9.0,    9.6,  999.0,  999.0,    2.9,    3.1,    2.7,    3.1,    0.2,  999.0,  999.0,    0.1,    0.1,    0.6,    1.8,    2.8,    4.8,    4.9,    3.6,    3.3,    3.0,    2.6,    2.5,    2.1,    2.3,    2.4,    2.9,    3.5,    3.6,    4.0,    4.7,    5.9,    6.8,    6.9,  999.0,  999.0,  999.0,  999.0,  999.0,  999.0,  999.0,  999.0,  999.0,  999.0,  999.0,  999.0,  999.0,  999.0,  999.0,  999.0,  999.0,  999.0,  999.0,  999.0,  999.0,  999.0,  999.0,  999.0,  999.0,  999.0,  999.0,  999.0
2011/08/05 09:10,  999.0,  999.0,  999.0,    6.9,    8.5,    8.9,    8.5,   10.4,   10.4,    9.9,   10.1,   10.4,   10.0,    9.7,    9.3,    8.5,    8.8,    8.7,    9.2,  999.0,  999.0,    3.9,    4.1,    4.3,    4.4,    4.8,    4.8,    5.0,  999.0,  999.0,  999.0,  999.0,    4.0,    3.6,    6.0,    6.1,    5.2,    4.9,    3.7,    3.4,    2.8,    2.4,    2.4,    2.6,    2.4,    3.0,    3.4,    3.3,    3.8,    4.7,    5.2,    6.3,    6.9,    6.1,  999.0,  999.0,  999.0,  999.0,  999.0,  999.0,  999.0,  999.0,  999.0,  999.0,  999.0,  999.0,  999.0,  999.0,  999.0,  999.0,  999.0,  999.0,  999.0,  999.0,  999.0,  999.0,  999.0,  999.0,  999.0,  999.0
2011/08/05 09:20,  999.0,  999.0,  999.0,    3.9,    6.5,    8.0,    8.6,    9.3,   10.1,   10.1,   11.5,   11.3,   10.8,   10.8,   10.7,    9.9,    9.3,    9.6,    9.8,    9.4,  999.0,  999.0,  999.0,    4.0,    5.0,  999.0,    4.1,    4.8,    4.3,    4.4,  999.0,  999.0,  999.0,  999.0,  999.0,    5.1,  999.0,    4.6,    4.0,    2.8,    2.5,    2.3,    1.8,    1.6,    1.8,    2.5,    3.2,    3.5,    4.2,    4.4,    5.3,    5.9,    6.0,    5.3,    4.8,  999.0,  999.0,  999.0,  999.0,  999.0,  999.0,  999.0,  999.0,  999.0,  999.0,  999.0,  999.0,  999.0,  999.0,  999.0,  999.0,  999.0,  999.0,  999.0,  999.0,  999.0,  999.0,  999.0,  999.0,  999.0
2011/08/05 09:30,  999.0,  999.0,  999.0,    6.3,    7.4,    8.4,    8.6,    8.6,    9.7,   10.6,    9.6,   10.4,   10.5,   12.2,   12.7,   12.0,   11.2,   10.4,   11.6,   11.1,  999.0,  999.0,  999.0,   10.1,  999.0,    6.9,    5.8,  999.0,    6.0,    5.9,  999.0,  999.0,    3.6,    4.1,    4.3,    3.3,    3.0,  999.0,    1.8,    2.3,    2.5,    2.7,    2.0,    2.3,    2.8,    3.6,    4.0,    4.6,    4.7,    5.3,    5.7,    6.4,    5.7,    5.2,    3.1,  999.0,  999.0,  999.0,  999.0,  999.0,  999.0,  999.0,  999.0,  999.0,  999.0,  999.0,  999.0,  999.0,  999.0,  999.0,  999.0,  999.0,  999.0,  999.0,  999.0,  999.0,  999.0,  999.0,  999.0,  999.0
2011/08/05 09:40,  999.0,  999.0,    3.1,    4.2,    4.5,    5.2,    6.1,    8.1,    9.1,   10.6,   10.8,   10.9,   10.8,   11.9,   10.9,   11.3,   11.7,   12.4,   11.1,   11.3,    9.9,   13.3,    8.4,    9.5,    7.5,  999.0,    6.8,    7.0,    8.6,  999.0,  999.0,  999.0,    6.4,    6.2,    6.7,    4.9,    5.2,    5.2,    4.2,    3.7,    3.6,    3.8,    3.0,    3.0,    3.0,    3.2,    3.3,    3.5,    4.2,    4.4,    5.6,    6.2,    5.6,    4.8,  999.0,  999.0,  999.0,  999.0,  999.0,  999.0,  999.0,    3.7,  999.0,  999.0,  999.0,  999.0,  999.0,  999.0,  999.0,  999.0,  999.0,  999.0,  999.0,  999.0,  999.0,  999.0,  999.0,  999.0,  999.0,  999.0
2011/08/05 09:50,  999.0,  999.0,    3.8,    4.7,    5.5,    5.9,    6.1,    6.7,    7.3,    7.9,    9.0,   10.1,   11.0,   11.0,   11.1,   11.8,   12.0,   11.7,   11.0,   10.4,    9.8,    9.5,    9.1,  999.0,  999.0,    5.2,    6.1,    5.2,    4.6,  999.0,  999.0,  999.0,    7.4,    7.4,    6.9,    6.2,    5.4,    4.5,    3.9,    3.3,    3.2,    3.2,    3.1,    3.0,    2.9,    3.2,    3.6,    3.3,    3.5,    3.7,    4.2,    5.1,    5.0,    3.9,    3.4,  999.0,  999.0,  999.0,  999.0,  999.0,  999.0,    3.1,  999.0,  999.0,  999.0,  999.0,  999.0,  999.0,  999.0,  999.0,  999.0,  999.0,  999.0,  999.0,  999.0,  999.0,  999.0,  999.0,  999.0,  999.0
2011/08/05 10:00,  999.0,  999.0,  999.0,    6.6,    8.5,    9.2,   10.3,   11.0,   10.9,   11.6,   11.4,   11.6,   11.4,   11.9,   12.6,   12.5,   13.3,   12.9,   12.3,   11.7,   10.6,   10.4,   10.0,   10.0,    8.9,  999.0,  999.0,  999.0,  999.0,  999.0,  999.0,  999.0,    3.5,    5.0,  999.0,  999.0,    6.1,    5.3,    3.6,    4.0,    3.3,    3.1,    2.9,    3.2,    2.9,    3.2,    3.9,    3.5,    3.6,    3.7,    4.4,    5.1,  999.0,    4.5,    3.7,  999.0,  999.0,  999.0,  999.0,  999.0,  999.0,    3.7,  999.0,  999.0,  999.0,  999.0,  999.0,  999.0,  999.0,  999.0,  999.0,  999.0,  999.0,  999.0,  999.0,  999.0,  999.0,  999.0,  999.0,  999.0
2011/08/05 10:10,    7.3,  999.0,    3.8,    4.9,    6.5,    7.9,    8.3,    9.1,    9.4,   10.1,    9.8,   10.6,   10.9,   11.3,   11.8,   11.7,   11.1,   11.5,   12.2,   12.4,   12.8,   12.1,   11.5,   11.2,   10.8,    9.6,    9.0,    8.8,    7.3,    7.1,    8.0,    7.8,    7.1,    7.2,    7.7,    7.8,    7.5,    7.5,    7.4,    6.3,    5.2,    4.6,    3.9,    4.1,    3.7,    3.7,    3.5,    3.0,    3.3,    3.6,    4.3,    5.6,  999.0,    5.7,    4.5,    3.8,  999.0,  999.0,  999.0,  999.0,    3.2,  999.0,  999.0,  999.0,  999.0,  999.0,  999.0,  999.0,  999.0,  999.0,  999.0,  999.0,  999.0,  999.0,  999.0,  999.0,  999.0,  999.0,  999.0,  999.0
2011/08/05 10:20,    7.6,    5.2,    5.6,    6.4,    7.4,    7.2,    8.5,    8.9,    9.5,    8.2,    8.2,    8.5,    8.6,   10.1,    9.5,    9.5,    8.8,    9.4,   10.3,    9.4,    9.6,   10.5,   10.3,   11.9,   12.4,   11.6,   12.3,   12.4,   12.7,   10.4,  999.0,    9.3,    8.0,    7.0,    6.9,    6.3,    6.1,    5.4,    5.9,    6.0,    5.2,    4.5,    4.2,    3.3,    2.9,    2.9,    2.8,    2.2,    2.4,    2.4,    2.9,    4.0,    4.7,    4.9,    5.2,  999.0,  999.0,  999.0,  999.0,  999.0,    4.1,    4.6,  999.0,  999.0,  999.0,  999.0,  999.0,  999.0,  999.0,  999.0,  999.0,  999.0,  999.0,  999.0,  999.0,  999.0,  999.0,  999.0,  999.0,  999.0
2011/08/05 10:30,  999.0,    5.1,    6.0,    6.7,    7.3,    7.9,    8.1,    8.6,    8.7,    9.3,    9.2,   10.1,    9.5,   10.0,   10.7,   10.7,   10.7,   10.8,   10.2,   10.0,    9.9,    8.8,    7.7,    9.4,   10.0,    9.0,    9.3,    9.2,   10.4,    9.3,    8.6,    9.1,    7.9,    7.0,    6.6,    6.4,    6.3,    6.3,    5.3,    4.6,    4.1,    3.6,    3.3,    3.0,    2.4,    2.0,    1.7,    1.8,    2.4,    2.9,    4.0,  999.0,  999.0,  999.0,    4.4,    3.6,  999.0,  999.0,  999.0,  999.0,    4.1,    4.6,  999.0,  999.0,  999.0,  999.0,  999.0,  999.0,  999.0,  999.0,  999.0,  999.0,  999.0,  999.0,  999.0,  999.0,  999.0,  999.0,  999.0,  999.0
2011/08/05 10:40,  999.0,  999.0,  999.0,    6.8,    7.6,    8.1,    8.7,    9.7,    9.9,   10.1,   10.1,    9.9,    9.9,   10.1,    9.9,   10.0,   10.1,   10.1,   10.0,   10.2,   10.2,    9.3,    9.6,    8.8,    8.6,    9.3,    9.0,    8.9,    9.0,    9.6,   10.1,    8.9,    9.0,    8.3,    7.9,    7.8,    7.2,    7.2,    6.3,    5.2,    4.3,    2.8,    2.5,    1.5,    1.3,    1.2,    0.9,    0.7,    1.2,    2.1,    3.0,    4.4,  999.0,  999.0,    4.2,    2.8,    2.7,  999.0,  999.0,  999.0,    3.8,  999.0,  999.0,  999.0,  999.0,  999.0,  999.0,  999.0,  999.0,  999.0,  999.0,  999.0,  999.0,  999.0,  999.0,  999.0,  999.0,  999.0,  999.0,  999.0
2011/08/05 10:50,  999.0,  999.0,  999.0,    6.7,    7.6,    7.3,    8.3,    8.6,    9.3,    9.7,    9.9,   10.4,   10.4,   10.3,   10.7,   10.5,   10.4,   10.1,    9.7,    9.3,    9.4,    9.1,    9.3,    9.3,    9.7,    8.9,  999.0,    8.1,    9.2,    8.9,    9.9,  999.0,    8.5,  999.0,  999.0,    6.1,    5.2,    4.9,    5.0,    4.7,    4.6,    4.5,    3.5,    3.5,    2.7,    1.9,    1.7,    1.5,    2.3,    2.9,    3.7,    4.6,    5.0,  999.0,  999.0,    2.4,    1.6,  999.0,  999.0,    2.7,    3.3,  999.0,  999.0,  999.0,  999.0,  999.0,  999.0,  999.0,  999.0,  999.0,  999.0,  999.0,  999.0,  999.0,  999.0,  999.0,  999.0,  999.0,  999.0,  999.0
2011/08/05 11:00,  999.0,  999.0,    6.6,    6.2,    6.9,    7.5,    8.5,    9.3,    9.7,   10.1,   10.3,   10.0,   10.5,   10.1,    9.8,    9.7,    9.3,    8.7,    9.0,    8.8,    8.4,    8.4,    8.6,    8.6,    8.8,    8.5,    8.8,    8.9,    9.7,  999.0,    9.8,   10.1,    9.8,    9.9,  999.0,    7.7,    6.8,    6.3,    5.4,    5.2,    4.9,  999.0,    4.6,    4.1,    3.4,    2.5,    2.4,    2.8,    2.6,    2.5,    2.7,    3.4,    4.7,    4.5,  999.0,  999.0,    1.3,  999.0,  999.0,    1.9,    3.0,  999.0,  999.0,  999.0,  999.0,  999.0,  999.0,  999.0,  999.0,  999.0,  999.0,  999.0,  999.0,  999.0,  999.0,  999.0,  999.0,  999.0,  999.0,  999.0
2011/08/05 11:10,  999.0,  999.0,  999.0,    5.6,    6.3,    7.1,    7.9,    8.2,    8.4,    8.7,    9.0,    9.2,    9.5,   10.0,   10.0,   10.7,   11.0,   10.5,    9.9,    9.7,    9.8,    9.2,    8.8,    9.2,    8.7,    8.1,    8.6,    8.6,    9.3,  999.0,    9.3,  999.0,    9.4,    8.9,    8.7,    7.6,    6.1,    5.2,    5.0,    4.8,    4.1,    4.7,    4.2,    4.3,    4.4,    5.0,  999.0,  999.0,    3.8,  999.0,    3.8,    4.3,    4.5,    5.0,  999.0,  999.0,    2.0,  999.0,  999.0,  999.0,  999.0,  999.0,  999.0,  999.0,  999.0,  999.0,  999.0,  999.0,  999.0,  999.0,  999.0,  999.0,  999.0,  999.0,  999.0,  999.0,  999.0,  999.0,  999.0,  999.0
2011/08/05 11:20,  999.0,  999.0,  999.0,    6.7,    6.9,    7.5,    7.8,    8.1,    8.6,    8.4,    8.0,    8.3,    9.1,    9.7,   10.0,   10.1,   10.9,   11.7,   11.5,   10.8,    9.4,    8.7,    8.8,    9.0,    8.8,    8.5,    8.5,    8.3,    8.5,  999.0,    7.9,    8.5,    8.4,    8.3,    7.8,    6.9,    6.7,    4.7,    4.3,    3.9,    4.1,    4.6,    4.9,    4.3,    4.5,    4.5,    4.9,    5.0,    5.6,    4.1,    4.1,    5.1,    5.9,  999.0,  999.0,  999.0,    3.4,  999.0,  999.0,  999.0,    3.1,  999.0,  999.0,  999.0,  999.0,  999.0,  999.0,  999.0,  999.0,  999.0,  999.0,  999.0,  999.0,  999.0,  999.0,  999.0,  999.0,  999.0,  999.0,  999.0
2011/08/05 11:30,  999.0,  999.0,    6.8,    7.1,    7.6,    8.3,    9.6,    9.9,    9.9,    9.6,    9.5,    8.9,    8.6,    9.2,    9.5,    9.6,   10.3,   11.4,   11.9,   11.7,   11.9,  999.0,   10.1,    9.8,    8.7,    8.3,    7.2,    7.7,    7.1,    7.4,    6.9,    7.6,    8.1,    8.2,    7.7,    6.8,    5.6,    5.0,    4.4,    4.1,    4.1,    4.8,    5.4,  999.0,  999.0,    4.6,    4.0,    4.0,    3.6,    3.5,    3.6,    4.4,    5.2,    5.4,  999.0,  999.0,  999.0,    3.4,  999.0,  999.0,  999.0,  999.0,  999.0,  999.0,  999.0,  999.0,  999.0,  999.0,  999.0,  999.0,  999.0,  999.0,  999.0,  999.0,  999.0,  999.0,  999.0,  999.0,  999.0,  999.0
2011/08/05 11:40,  999.0,  999.0,  999.0,    6.4,    8.7,    9.2,    9.9,    9.8,   10.2,   10.1,    9.8,   10.5,   10.7,    9.2,    9.7,    9.7,    9.7,    9.3,    9.1,    9.5,   10.1,   10.8,   10.0,   10.2,    9.8,    9.3,    8.9,    8.5,    7.2,  999.0,    6.8,    7.6,    7.8,    7.2,    6.7,    6.2,    5.5,    5.2,    4.4,    3.2,    3.5,    3.9,    4.1,    4.2,    4.5,    4.6,    4.9,    4.5,    3.8,    3.1,    3.4,    3.7,    3.9,    4.4,  999.0,  999.0,  999.0,    2.5,  999.0,  999.0,    3.5,  999.0,  999.0,  999.0,  999.0,  999.0,  999.0,  999.0,  999.0,  999.0,  999.0,  999.0,  999.0,  999.0,  999.0,  999.0,  999.0,  999.0,  999.0,  999.0
2011/08/05 11:50,    5.8,    9.6,    7.2,    6.3,    6.2,    7.8,    8.1,    8.8,    9.3,    9.8,   10.3,   10.5,   10.6,   10.4,   11.3,   11.2,   11.5,   11.5,   10.4,    9.7,    8.9,   10.8,    8.0,    8.4,    8.0,    8.1,    9.2,    8.3,    7.5,    6.5,  999.0,    7.0,  999.0,  999.0,    7.4,    7.1,    6.8,    6.7,    6.4,    5.9,    4.7,    4.2,    4.0,    4.1,    3.9,    4.6,    5.4,    5.1,    4.5,    3.7,    3.0,    3.1,    3.8,  999.0,  999.0,  999.0,    2.5,    2.8,    3.1,  999.0,    4.6,  999.0,  999.0,  999.0,  999.0,  999.0,  999.0,  999.0,  999.0,  999.0,  999.0,  999.0,  999.0,  999.0,  999.0,  999.0,  999.0,  999.0,  999.0,  999.0
2011/08/05 12:00,  999.0,  999.0,    5.9,    8.9,    9.9,   10.2,    9.9,    9.4,    9.8,   11.1,   11.5,   11.1,   10.5,   10.8,   11.0,   11.3,   11.4,   11.2,   11.2,   11.1,   10.9,   10.9,   10.5,   10.2,    9.1,    8.5,    8.0,    7.2,    7.3,    6.8,    7.4,    7.4,  999.0,  999.0,    7.4,    7.1,    6.9,    7.3,    7.5,    7.8,    6.8,    5.6,    4.2,    3.5,    3.7,    4.7,    5.3,  999.0,  999.0,    4.1,    2.9,    1.9,    2.6,  999.0,  999.0,  999.0,  999.0,    2.9,    2.9,  999.0,  999.0,  999.0,  999.0,  999.0,  999.0,  999.0,  999.0,  999.0,  999.0,  999.0,  999.0,  999.0,  999.0,  999.0,  999.0,  999.0,  999.0,  999.0,  999.0,  999.0
2011/08/05 12:10,  999.0,  999.0,  999.0,  999.0,    5.8,    8.1,    8.8,    8.7,    6.5,    6.0,    8.4,    7.6,  999.0,    7.6,    8.0,    8.5,    8.7,    7.6,    8.7,    9.4,    8.7,    7.9,    8.3,    8.6,    7.8,    7.2,    7.6,    6.1,    6.2,    5.6,    6.3,    4.9,    5.7,    6.0,    6.3,    5.3,  999.0,    6.3,    6.9,    6.5,    6.8,    6.3,    5.3,    3.9,    4.0,    4.7,    5.2,  999.0,  999.0,    4.6,    3.8,    4.0,    5.6,    7.0,  999.0,  999.0,  999.0,  999.0,  999.0,  999.0,  999.0,  999.0,  999.0,  999.0,  999.0,  999.0,  999.0,  999.0,  999.0,  999.0,  999.0,  999.0,  999.0,  999.0,  999.0,  999.0,  999.0,  999.0,  999.0,  999.0
2011/08/05 12:20,  999.0,  999.0,    7.8,    7.6,    8.7,   10.1,  999.0,  999.0,   11.3,    9.5,    9.1,    9.1,   10.2,   10.8,   10.8,   10.4,    9.6,    9.9,    8.9,    9.0,    9.4,    9.3,    8.7,    7.3,    7.0,    4.4,    4.9,    6.1,    6.7,  999.0,  999.0,  999.0,    7.1,    7.1,    7.2,    7.1,    7.3,    7.0,    7.4,    7.4,    7.2,    5.9,    6.1,    5.6,    4.9,  999.0,    5.3,  999.0,    4.8,    4.2,    3.5,    3.7,    5.2,    6.7,  999.0,  999.0,  999.0,  999.0,  999.0,  999.0,  999.0,  999.0,  999.0,  999.0,  999.0,  999.0,  999.0,  999.0,  999.0,  999.0,  999.0,  999.0,  999.0,  999.0,  999.0,  999.0,  999.0,  999.0,  999.0,  999.0
2011/08/05 12:30,  999.0,  999.0,    8.1,    8.6,    9.5,    9.2,    9.6,   10.8,   10.4,   10.4,   10.2,   10.4,   10.1,   10.0,   10.3,   10.3,    9.9,    9.4,    9.6,    8.8,    8.2,    8.4,    7.4,    8.3,    7.5,    7.8,    7.3,    8.2,  999.0,  999.0,  999.0,  999.0,    7.2,    7.1,    7.0,    7.1,    7.4,    6.5,    6.3,    6.5,    6.1,    5.5,    5.2,    4.9,    5.1,    5.4,  999.0,    5.6,    5.0,    3.4,    3.0,    2.5,    5.4,    5.3,  999.0,  999.0,  999.0,  999.0,  999.0,  999.0,  999.0,  999.0,  999.0,  999.0,  999.0,  999.0,  999.0,  999.0,  999.0,  999.0,  999.0,  999.0,  999.0,  999.0,  999.0,  999.0,  999.0,  999.0,  999.0,  999.0
2011/08/05 12:40,  999.0,  999.0,  999.0,    7.7,    8.5,    9.8,   10.4,   11.1,   10.6,    9.6,    8.9,    9.1,    9.6,    9.9,    9.5,    8.9,    8.4,    8.6,    9.0,    8.6,    8.7,    8.2,    8.3,    8.0,    8.1,    7.3,    6.7,    6.8,    6.1,    6.2,    5.3,    5.8,    6.8,    7.2,    6.9,    7.1,    7.4,    6.4,    6.0,    5.8,    5.6,    5.7,    5.0,    4.8,    5.2,    6.3,  999.0,  999.0,  999.0,    2.7,    2.1,    2.0,    2.9,    2.8,    3.8,  999.0,  999.0,  999.0,  999.0,  999.0,  999.0,  999.0,  999.0,  999.0,  999.0,  999.0,  999.0,  999.0,  999.0,  999.0,  999.0,  999.0,  999.0,  999.0,  999.0,  999.0,  999.0,  999.0,  999.0,  999.0
2011/08/05 12:50,  999.0,  999.0,  999.0,    8.7,    9.0,    9.2,    9.7,   10.3,   10.9,   10.8,   10.5,   10.6,    9.6,    9.4,    9.2,    9.4,    9.8,    9.4,    9.2,    9.3,    9.4,    8.9,    8.4,    8.4,    8.0,    8.0,    8.7,    9.1,    8.8,  999.0,    7.5,    7.9,    7.3,    6.8,    6.8,    7.1,    7.2,    7.2,    7.3,    6.3,    6.4,    6.5,    6.1,  999.0,  999.0,  999.0,  999.0,  999.0,  999.0,    2.5,    1.5,    1.0,    1.8,    2.4,  999.0,  999.0,  999.0,  999.0,  999.0,  999.0,  999.0,  999.0,  999.0,  999.0,  999.0,  999.0,  999.0,  999.0,  999.0,  999.0,  999.0,  999.0,  999.0,  999.0,  999.0,  999.0,  999.0,  999.0,  999.0,  999.0
2011/08/05 13:00,  999.0,  999.0,  999.0,    8.3,    9.2,    9.1,    9.0,    9.3,   10.3,   10.8,   11.3,   10.1,   10.1,   10.2,   10.5,   10.2,   10.3,   10.1,   10.0,    9.4,    9.4,    9.7,   10.2,   10.0,    8.9,    7.9,    7.9,    8.8,    8.2,  999.0,    8.0,    7.8,    6.8,    7.0,    7.4,    7.6,    7.8,    7.6,    7.3,    7.4,    6.9,    7.3,    6.4,    6.2,    6.2,  999.0,  999.0,  999.0,  999.0,    3.6,    2.7,    2.5,  999.0,  999.0,  999.0,  999.0,  999.0,  999.0,  999.0,  999.0,  999.0,  999.0,  999.0,  999.0,  999.0,  999.0,  999.0,  999.0,  999.0,  999.0,  999.0,  999.0,  999.0,  999.0,  999.0,  999.0,  999.0,  999.0,  999.0,  999.0
2011/08/05 13:10,  999.0,  999.0,  999.0,    8.4,    8.9,    9.4,   10.3,   10.3,   10.0,   10.2,   10.5,   10.6,    9.4,    9.6,    9.3,    8.7,    9.2,    9.7,   10.2,    9.7,    8.8,    8.7,    8.7,    8.7,    8.5,    7.8,    6.7,    7.1,    6.9,    7.4,  999.0,  999.0,    6.7,    6.6,    6.7,    7.0,    7.6,    7.7,    7.7,    7.9,    7.7,    8.2,    7.7,    6.0,    6.6,  999.0,  999.0,  999.0,  999.0,    5.2,    4.2,    3.9,  999.0,  999.0,  999.0,  999.0,  999.0,  999.0,  999.0,  999.0,  999.0,  999.0,  999.0,  999.0,  999.0,  999.0,  999.0,  999.0,  999.0,  999.0,  999.0,  999.0,  999.0,  999.0,  999.0,  999.0,  999.0,  999.0,  999.0,  999.0
2011/08/05 13:20,  999.0,  999.0,    7.7,    8.6,    8.4,    9.0,   10.1,   10.1,   10.2,   10.1,    9.9,    9.9,    9.5,    9.9,    9.9,    9.8,    9.1,    9.6,  999.0,    8.8,    9.0,    7.5,    7.4,    7.8,    7.0,  999.0,  999.0,  999.0,    5.4,    5.1,  999.0,  999.0,  999.0,    6.2,    5.7,    6.0,    6.5,    6.6,    7.2,    7.4,    7.7,    7.5,    7.4,    6.3,  999.0,  999.0,  999.0,  999.0,  999.0,    6.3,    5.7,    4.9,  999.0,  999.0,  999.0,  999.0,  999.0,  999.0,  999.0,  999.0,  999.0,  999.0,  999.0,  999.0,  999.0,  999.0,  999.0,  999.0,  999.0,  999.0,  999.0,  999.0,  999.0,  999.0,  999.0,  999.0,  999.0,  999.0,  999.0,  999.0
2011/08/05 13:30,  999.0,  999.0,    7.0,    8.6,    8.9,    9.6,   10.3,   11.3,   10.6,    9.8,   10.2,   10.5,   10.6,   11.3,   12.2,   10.7,    9.4,   10.1,   10.3,    9.5,   10.5,   10.0,    9.0,    7.7,  999.0,  999.0,  999.0,    2.3,    2.9,  999.0,  999.0,  999.0,  999.0,  999.0,    5.1,    5.0,    5.7,    6.7,    8.0,    7.4,    7.6,    7.1,  999.0,  999.0,  999.0,  999.0,  999.0,  999.0,  999.0,    7.5,    6.7,    6.7,  999.0,  999.0,  999.0,  999.0,  999.0,  999.0,  999.0,  999.0,  999.0,  999.0,  999.0,  999.0,  999.0,  999.0,  999.0,  999.0,  999.0,  999.0,  999.0,  999.0,  999.0,  999.0,  999.0,  999.0,  999.0,  999.0,  999.0,  999.0
2011/08/05 13:40,  999.0,  999.0,  999.0,    8.8,   10.8,   10.7,   10.7,  999.0,   10.3,    9.2,   10.5,    9.4,    9.9,  999.0,   10.2,  999.0,    9.3,    9.8,    9.6,    8.4,  999.0,   10.1,  999.0,  999.0,  999.0,  999.0,  999.0,    1.7,  999.0,  999.0,  999.0,    1.8,    2.9,  999.0,  999.0,    4.4,  999.0,    4.7,    6.8,    6.7,    7.0,  999.0,  999.0,    6.7,  999.0,  999.0,  999.0,  999.0,  999.0,    8.2,    6.5,  999.0,  999.0,  999.0,  999.0,  999.0,  999.0,  999.0,  999.0,  999.0,  999.0,  999.0,  999.0,  999.0,  999.0,  999.0,  999.0,  999.0,  999.0,  999.0,  999.0,  999.0,  999.0,  999.0,  999.0,  999.0,  999.0,  999.0,  999.0,  999.0
2011/08/05 13:50,  999.0,  999.0,  999.0,  999.0,  999.0,  999.0,  999.0,  999.0,  999.0,  999.0,  999.0,  999.0,  999.0,  999.0,  999.0,  999.0,  999.0,  999.0,  999.0,  999.0,  999.0,  999.0,  999.0,  999.0,  999.0,  999.0,  999.0,  999.0,  999.0,  999.0,  999.0,  999.0,  999.0,  999.0,  999.0,  999.0,  999.0,  999.0,  999.0,  999.0,  999.0,  999.0,  999.0,  999.0,  999.0,  999.0,  999.0,  999.0,  999.0,  999.0,  999.0,  999.0,  999.0,  999.0,  999.0,  999.0,  999.0,  999.0,  999.0,  999.0,  999.0,  999.0,  999.0,  999.0,  999.0,  999.0,  999.0,  999.0,  999.0,  999.0,  999.0,  999.0,  999.0,  999.0,  999.0,  999.0,  999.0,  999.0,  999.0,  999.0
2011/08/05 14:00,  999.0,  999.0,    8.1,    8.8,   10.6,   11.1,   12.9,   12.3,  999.0,   10.0,  999.0,    8.3,    8.2,    7.8,    8.8,  999.0,  999.0,  999.0,    3.2,    3.1,  999.0,  999.0,  999.0,  999.0,  999.0,  999.0,  999.0,  999.0,  999.0,  999.0,  999.0,    0.2,    1.8,    1.9,    3.0,  999.0,    2.8,    3.8,    4.3,    4.7,    5.6,    6.2,  999.0,    5.9,    7.3,  999.0,  999.0,  999.0,    7.4,    7.4,  999.0,  999.0,  999.0,  999.0,  999.0,  999.0,  999.0,  999.0,  999.0,  999.0,  999.0,  999.0,  999.0,  999.0,  999.0,  999.0,  999.0,  999.0,  999.0,  999.0,  999.0,  999.0,  999.0,  999.0,  999.0,  999.0,  999.0,  999.0,  999.0,  999.0
2011/08/05 14:10,  999.0,  999.0,    7.6,    8.6,   10.3,   10.5,   11.2,   11.2,   10.5,    9.7,    9.1,    8.5,    7.8,    8.4,    9.8,   10.2,   10.0,    8.9,    8.1,    6.0,    5.2,    4.8,  999.0,    3.6,  999.0,    2.6,  999.0,  999.0,    2.7,    0.3,    0.1,    0.3,    2.8,    1.7,    2.2,    2.4,    2.6,    2.6,    3.1,    3.8,    4.6,    5.6,    4.8,    5.2,  999.0,  999.0,  999.0,  999.0,  999.0,  999.0,  999.0,  999.0,  999.0,  999.0,  999.0,  999.0,  999.0,  999.0,  999.0,  999.0,  999.0,  999.0,  999.0,  999.0,  999.0,  999.0,  999.0,  999.0,  999.0,  999.0,  999.0,  999.0,  999.0,  999.0,  999.0,  999.0,  999.0,  999.0,  999.0,  999.0
2011/08/05 14:20,  999.0,  999.0,    6.1,    6.9,    8.1,    9.8,    9.7,    9.9,    9.4,    9.2,    8.2,    8.0,    7.8,    8.7,    9.0,    9.1,    8.8,    8.5,    7.3,    7.1,    6.0,    5.3,    6.0,  999.0,  999.0,  999.0,    0.4,    0.2,  999.0,    0.0,   -0.1,  999.0,  999.0,  999.0,    4.1,    4.1,    4.4,    4.6,    5.1,  999.0,    4.2,  999.0,  999.0,  999.0,  999.0,  999.0,  999.0,  999.0,  999.0,  999.0,  999.0,  999.0,  999.0,  999.0,  999.0,  999.0,  999.0,  999.0,  999.0,  999.0,  999.0,  999.0,  999.0,  999.0,  999.0,  999.0,  999.0,  999.0,  999.0,  999.0,  999.0,  999.0,  999.0,  999.0,  999.0,  999.0,  999.0,  999.0,  999.0,  999.0
2011/08/05 14:30,  999.0,  999.0,    5.8,    6.8,    7.2,    7.9,    8.5,    9.6,    9.5,    9.0,    9.6,  999.0,    8.4,    8.8,    8.7,    8.4,    8.7,    8.9,    7.4,    6.4,    6.6,  999.0,  999.0,    0.3,   -0.0,   -0.0,   -0.1,    0.0,   -0.0,   -0.1,    0.0,  999.0,  999.0,  999.0,  999.0,    4.4,    5.0,  999.0,    6.1,  999.0,  999.0,  999.0,  999.0,  999.0,  999.0,  999.0,  999.0,  999.0,  999.0,  999.0,  999.0,  999.0,  999.0,  999.0,  999.0,  999.0,  999.0,  999.0,  999.0,  999.0,  999.0,  999.0,  999.0,  999.0,  999.0,  999.0,  999.0,  999.0,  999.0,  999.0,  999.0,  999.0,  999.0,  999.0,  999.0,  999.0,  999.0,  999.0,  999.0,  999.0
2011/08/05 14:40,  999.0,  999.0,  999.0,    4.9,    6.5,    6.4,    7.3,    7.9,    8.6,    8.1,    7.6,    7.6,    7.4,    7.3,    7.1,    7.4,    7.6,    7.6,    8.1,    7.5,    6.2,    6.1,    5.1,    5.4,  999.0,    0.2,    0.1,  999.0,    1.0,    0.1,  999.0,    3.4,    3.6,    4.6,    4.3,    5.0,    5.0,    4.4,    5.0,  999.0,  999.0,  999.0,  999.0,  999.0,  999.0,  999.0,  999.0,  999.0,  999.0,  999.0,  999.0,  999.0,  999.0,  999.0,  999.0,  999.0,  999.0,  999.0,  999.0,  999.0,  999.0,  999.0,  999.0,  999.0,  999.0,  999.0,  999.0,  999.0,  999.0,  999.0,  999.0,  999.0,  999.0,  999.0,  999.0,  999.0,  999.0,  999.0,  999.0,  999.0
2011/08/05 14:50,  999.0,  999.0,    3.8,    4.4,    5.3,    5.6,    6.0,    6.5,    7.7,    7.6,    8.0,    7.8,    7.8,    7.4,    7.1,    6.6,    6.9,    6.8,    6.5,    6.6,    7.7,    8.7,    9.0,    7.0,    5.6,  999.0,    5.0,    3.6,    3.2,  999.0,    2.8,  999.0,    4.9,    6.0,    6.4,    5.3,  999.0,    5.5,    5.9,  999.0,  999.0,  999.0,  999.0,  999.0,  999.0,  999.0,  999.0,  999.0,  999.0,  999.0,  999.0,  999.0,  999.0,  999.0,  999.0,  999.0,  999.0,  999.0,  999.0,  999.0,  999.0,  999.0,  999.0,  999.0,  999.0,  999.0,  999.0,  999.0,  999.0,  999.0,  999.0,  999.0,  999.0,  999.0,  999.0,  999.0,  999.0,  999.0,  999.0,  999.0
2011/08/05 15:00,  999.0,  999.0,  999.0,    6.1,    6.3,    7.1,    7.2,    7.2,    7.5,    7.5,    8.3,    8.5,    8.7,    8.7,    8.6,    8.4,    8.6,    7.9,    7.5,    6.9,    6.8,    5.9,    6.5,    7.7,    6.0,    6.0,    4.4,    4.3,    5.0,    4.1,  999.0,    3.8,  999.0,    5.5,    6.5,    5.8,    5.8,    5.5,    6.2,  999.0,  999.0,  999.0,  999.0,  999.0,  999.0,  999.0,  999.0,  999.0,  999.0,  999.0,  999.0,  999.0,  999.0,  999.0,  999.0,  999.0,  999.0,  999.0,  999.0,  999.0,  999.0,  999.0,  999.0,  999.0,  999.0,  999.0,  999.0,  999.0,  999.0,  999.0,  999.0,  999.0,  999.0,  999.0,  999.0,  999.0,  999.0,  999.0,  999.0,  999.0
2011/08/05 15:10,  999.0,  999.0,    5.5,    6.2,    7.3,    7.6,    7.6,    7.8,    7.7,    7.9,    8.3,    8.9,    9.6,   10.6,   10.7,   10.9,  999.0,    9.2,    8.5,    7.5,    6.6,    4.8,    5.4,    4.8,    5.2,    4.6,    4.6,    4.4,    4.5,    3.7,    3.5,    3.4,    4.3,    4.2,  999.0,    4.7,    3.7,    4.2,    5.6,  999.0,  999.0,  999.0,  999.0,    3.5,  999.0,  999.0,  999.0,  999.0,  999.0,  999.0,  999.0,  999.0,  999.0,  999.0,  999.0,  999.0,  999.0,  999.0,  999.0,  999.0,  999.0,  999.0,  999.0,  999.0,  999.0,  999.0,  999.0,  999.0,  999.0,  999.0,  999.0,  999.0,  999.0,  999.0,  999.0,  999.0,  999.0,  999.0,  999.0,  999.0
2011/08/05 15:20,  999.0,  999.0,  999.0,    6.2,    6.9,    7.3,    7.4,    7.4,    7.2,    7.7,    8.7,    8.6,    9.1,    9.9,   10.4,   11.2,   11.0,    9.9,    9.1,    8.0,    6.4,    4.9,    4.3,    4.3,    4.4,    4.5,    5.9,    5.3,    4.9,    5.4,    4.3,    5.7,    5.9,    5.3,    4.5,    4.2,    3.8,    3.4,    3.4,  999.0,  999.0,    3.3,    3.8,    4.3,    4.7,    4.8,    5.5,  999.0,  999.0,  999.0,  999.0,  999.0,  999.0,  999.0,  999.0,  999.0,  999.0,  999.0,  999.0,  999.0,  999.0,  999.0,  999.0,  999.0,  999.0,  999.0,  999.0,  999.0,  999.0,  999.0,  999.0,  999.0,  999.0,  999.0,  999.0,  999.0,  999.0,  999.0,  999.0,  999.0
2011/08/05 15:30,  999.0,  999.0,  999.0,    4.3,    5.7,    6.8,    6.9,    7.0,  999.0,    7.6,    7.2,    8.0,    8.3,    9.1,    9.6,   10.1,  999.0,  999.0,  999.0,  999.0,    6.8,    3.8,    2.6,    3.4,    4.3,    4.4,    4.2,    3.3,    4.0,  999.0,    4.3,    5.5,    6.1,    5.8,    5.4,    4.9,    4.7,    4.7,    4.0,    4.0,    3.8,    4.1,    4.5,    4.9,    5.1,    5.2,  999.0,  999.0,  999.0,  999.0,  999.0,  999.0,  999.0,  999.0,  999.0,  999.0,  999.0,  999.0,  999.0,  999.0,  999.0,  999.0,  999.0,  999.0,  999.0,  999.0,  999.0,  999.0,  999.0,  999.0,  999.0,  999.0,  999.0,  999.0,  999.0,  999.0,  999.0,  999.0,  999.0,  999.0
2011/08/05 15:40,  999.0,  999.0,  999.0,    4.2,    5.4,    6.1,    6.3,    6.4,    6.5,    6.7,    7.4,    8.2,    9.0,    9.9,   10.7,   10.7,   10.2,   10.4,   10.2,    9.5,  999.0,  999.0,  999.0,    3.3,    2.9,  999.0,    3.9,    4.6,    4.8,    4.0,    3.8,    4.6,    4.8,    4.6,    4.0,    4.0,    3.7,    3.2,    3.3,    3.5,    3.6,    3.8,    3.7,    4.1,    4.6,    4.8,    5.5,  999.0,  999.0,  999.0,  999.0,  999.0,  999.0,  999.0,  999.0,  999.0,  999.0,  999.0,  999.0,  999.0,  999.0,  999.0,  999.0,  999.0,  999.0,  999.0,  999.0,  999.0,  999.0,  999.0,  999.0,  999.0,  999.0,  999.0,  999.0,  999.0,  999.0,  999.0,  999.0,  999.0
2011/08/05 15:50,    2.0,  999.0,  999.0,    5.1,    5.9,    5.8,    6.0,    6.6,    6.3,    7.5,    7.6,    8.8,    8.9,    9.6,    9.8,   10.1,    9.8,    9.7,    9.3,    8.7,    8.2,    8.1,    6.6,    6.5,    5.7,    6.4,    5.5,    5.7,    4.9,    4.8,    5.0,    5.5,    5.3,    5.0,    5.1,    4.4,    4.4,    4.9,    4.4,    4.3,    4.5,    4.6,    5.0,    5.4,    5.3,    5.7,    6.3,    6.3,    6.4,    7.8,  999.0,  999.0,  999.0,  999.0,  999.0,  999.0,  999.0,  999.0,  999.0,  999.0,  999.0,  999.0,  999.0,  999.0,  999.0,  999.0,  999.0,  999.0,  999.0,  999.0,  999.0,  999.0,  999.0,  999.0,  999.0,  999.0,  999.0,  999.0,  999.0,  999.0
2011/08/05 16:00,    7.6,  999.0,  999.0,  999.0,    6.1,    6.7,    7.3,    7.4,    7.3,    7.4,    7.5,    7.4,    7.8,    7.8,    8.4,    8.8,    8.8,    9.0,    8.9,    8.8,    8.1,    8.2,    6.0,    4.5,    4.0,    3.3,    3.4,  999.0,    0.6,  999.0,  999.0,    3.9,    4.7,    5.1,    5.0,    4.3,    3.6,    3.5,    3.3,    3.7,    3.7,    3.9,    4.1,    4.2,    4.6,    5.3,    5.7,    6.0,    6.2,  999.0,  999.0,  999.0,  999.0,  999.0,  999.0,  999.0,  999.0,  999.0,  999.0,  999.0,  999.0,  999.0,  999.0,  999.0,  999.0,  999.0,  999.0,  999.0,  999.0,  999.0,  999.0,  999.0,  999.0,  999.0,  999.0,  999.0,  999.0,  999.0,  999.0,  999.0
2011/08/05 16:10,  999.0,  999.0,  999.0,    7.2,    7.9,    8.7,    9.2,    9.3,    8.9,    8.6,    8.4,    8.6,    8.6,    8.8,    9.1,    8.9,    8.7,    8.7,    9.2,    9.3,    9.4,    9.4,    9.1,    8.2,    7.8,    6.5,    4.8,    4.3,  999.0,    5.6,  999.0,    5.2,    4.7,    4.4,    4.3,    4.4,    3.3,    3.0,    3.3,    3.8,    4.1,    4.6,    4.8,    4.3,    4.6,    4.4,    5.0,    5.7,    5.1,    5.8,  999.0,  999.0,  999.0,  999.0,  999.0,  999.0,  999.0,  999.0,  999.0,  999.0,  999.0,  999.0,  999.0,  999.0,  999.0,  999.0,  999.0,  999.0,  999.0,  999.0,  999.0,  999.0,  999.0,  999.0,  999.0,  999.0,  999.0,  999.0,  999.0,  999.0
2011/08/05 16:20,  999.0,  999.0,  999.0,    6.7,    7.3,    7.8,    8.7,    9.0,    9.1,    8.9,    9.8,    8.8,    9.0,    8.7,    8.5,    8.0,    7.7,    8.0,    9.2,    9.2,    9.4,    9.4,    8.4,    8.1,    7.7,  999.0,  999.0,  999.0,    4.8,    3.2,    3.1,    3.3,  999.0,    4.9,    3.4,    3.1,    2.9,    3.0,    3.2,    4.0,    4.5,    4.3,    4.3,    4.3,    4.5,  999.0,    4.4,    4.6,    4.6,    5.1,    4.6,    4.0,    4.4,  999.0,  999.0,  999.0,  999.0,  999.0,  999.0,  999.0,  999.0,  999.0,  999.0,  999.0,  999.0,  999.0,  999.0,  999.0,  999.0,  999.0,  999.0,  999.0,  999.0,  999.0,  999.0,  999.0,  999.0,  999.0,  999.0,  999.0
2011/08/05 16:30,  999.0,  999.0,  999.0,    6.9,    7.5,    7.8,    8.1,    8.0,    8.3,    9.3,    9.2,    8.9,    8.8,    8.3,    7.8,    7.6,    7.6,    7.6,    8.3,    8.4,    8.6,    8.6,    7.4,    7.4,    6.9,  999.0,  999.0,    5.8,    5.4,    5.1,    4.5,    4.4,    5.3,    5.7,    4.1,    3.4,    3.8,    3.3,    4.6,    4.5,    5.1,    4.8,    4.9,    4.9,    3.9,  999.0,    4.5,    4.0,    4.5,    4.6,    4.7,    4.6,    4.2,    4.2,  999.0,  999.0,  999.0,  999.0,  999.0,  999.0,  999.0,  999.0,  999.0,  999.0,  999.0,  999.0,  999.0,  999.0,  999.0,  999.0,  999.0,  999.0,  999.0,  999.0,  999.0,  999.0,  999.0,  999.0,  999.0,  999.0
2011/08/05 16:40,  999.0,  999.0,    6.0,    6.3,    6.7,    7.2,    7.7,    7.6,    8.2,    9.0,    9.0,    9.2,    8.8,    8.0,    7.6,    8.0,    8.0,    8.1,    8.2,    8.2,    8.7,    9.0,    9.2,    7.6,    6.7,    6.0,    5.9,    6.1,    6.0,  999.0,    5.4,    5.6,    5.3,    5.8,    5.7,    4.7,    4.6,    4.9,    5.7,    5.7,    5.1,    5.0,    5.0,    4.5,    4.4,    4.4,    4.6,    4.4,    4.7,    4.8,    4.8,    4.6,    3.9,  999.0,  999.0,  999.0,  999.0,  999.0,  999.0,  999.0,  999.0,  999.0,  999.0,  999.0,  999.0,  999.0,  999.0,  999.0,  999.0,  999.0,  999.0,  999.0,  999.0,  999.0,  999.0,  999.0,  999.0,  999.0,  999.0,  999.0
2011/08/05 16:50,  999.0,  999.0,  999.0,    6.9,    7.3,    8.0,    8.6,    9.0,    9.0,    9.4,    8.8,    8.3,    8.3,    8.1,    7.6,    7.4,    7.6,    7.2,    7.1,    7.4,    7.8,    8.0,    8.5,  999.0,  999.0,  999.0,    5.0,    4.6,    5.1,    4.6,    4.8,    4.4,    4.6,    5.0,    5.3,    5.0,    4.6,    4.8,    4.9,    5.3,    4.8,    4.5,    4.6,    4.5,    4.9,    4.4,    3.9,  999.0,    3.4,    3.8,    3.6,    2.8,    2.0,    2.4,  999.0,  999.0,  999.0,  999.0,  999.0,  999.0,  999.0,  999.0,  999.0,  999.0,  999.0,  999.0,  999.0,  999.0,  999.0,  999.0,  999.0,  999.0,  999.0,  999.0,  999.0,  999.0,  999.0,  999.0,  999.0,  999.0
2011/08/05 17:00,  999.0,  999.0,  999.0,    6.2,    6.6,    7.5,    7.8,    8.3,    8.1,    8.1,    8.2,    8.2,    7.9,    7.8,    7.6,    7.2,    6.9,    7.0,    6.9,    6.8,    6.5,    6.6,    6.7,    7.1,    7.7,    8.4,  999.0,    6.7,    5.0,    3.9,    4.5,    5.9,    5.9,    5.1,    5.5,    4.8,    4.8,    5.0,    5.5,    6.3,    5.8,    4.9,    4.9,    5.1,    5.7,    5.4,    5.5,    5.4,    4.8,    4.8,    4.6,    3.6,    2.3,    2.6,    2.7,    2.4,  999.0,  999.0,  999.0,  999.0,    3.2,    3.4,  999.0,  999.0,  999.0,  999.0,  999.0,  999.0,  999.0,  999.0,  999.0,  999.0,  999.0,  999.0,  999.0,  999.0,  999.0,  999.0,  999.0,  999.0
2011/08/05 17:10,  999.0,  999.0,  999.0,    6.9,    6.8,    7.3,    7.5,    7.8,    7.6,    7.9,    7.4,    7.3,    7.2,    6.7,    6.7,    6.8,    6.6,    7.0,    7.0,    7.1,    7.2,    5.9,    5.8,    5.8,    6.4,    7.0,    6.6,    6.3,    5.8,    4.6,  999.0,    4.7,    4.8,    5.0,    5.2,    4.6,    4.0,    3.8,    3.9,    4.5,    4.4,    4.5,    4.5,    4.6,    5.0,    5.1,    4.7,    4.2,    4.2,    4.1,    3.9,    2.9,    2.7,    3.1,    2.8,    2.5,    1.9,  999.0,  999.0,    3.0,    3.2,    3.6,  999.0,  999.0,  999.0,  999.0,  999.0,  999.0,  999.0,  999.0,  999.0,  999.0,  999.0,  999.0,  999.0,  999.0,  999.0,  999.0,  999.0,  999.0
2011/08/05 17:20,  999.0,  999.0,  999.0,    6.8,    6.5,    6.8,    7.1,    7.1,    6.8,    6.6,    6.6,    6.4,    6.2,    5.8,    5.8,    6.2,    6.2,    6.2,    6.2,    6.1,    6.3,    6.2,    6.7,    6.5,    6.7,    7.2,  999.0,    8.1,    7.7,  999.0,  999.0,    4.8,    5.0,    5.7,    5.4,    5.2,    4.8,    4.8,    4.9,    4.8,    5.5,    5.7,    5.4,    5.3,    5.5,    5.1,    4.7,    4.6,    4.6,    4.3,    4.0,    3.3,    3.1,    3.2,    3.4,    2.6,    2.4,  999.0,  999.0,  999.0,    3.7,    4.1,    4.9,  999.0,  999.0,  999.0,  999.0,  999.0,  999.0,  999.0,  999.0,  999.0,  999.0,  999.0,  999.0,  999.0,  999.0,  999.0,  999.0,  999.0
2011/08/05 17:30,  999.0,  999.0,  999.0,    5.4,    5.7,    5.8,    5.9,    5.7,    5.5,    5.6,    5.5,    5.2,    5.9,    5.7,    6.0,    6.1,    5.4,    5.6,    5.3,    5.9,    6.4,    6.4,    6.4,    6.3,    6.5,    6.9,    7.3,  999.0,  999.0,    0.9,    2.4,    2.6,    2.8,    3.0,    3.5,    4.2,    4.4,    4.5,    4.5,    4.4,    5.0,    5.4,    5.0,    5.7,    5.3,    5.1,    4.8,    5.0,    4.7,  999.0,    4.1,    3.6,    3.0,    2.9,    3.0,    2.5,    1.8,  999.0,  999.0,  999.0,    3.3,    3.6,    3.7,  999.0,  999.0,  999.0,  999.0,  999.0,  999.0,  999.0,  999.0,  999.0,  999.0,  999.0,  999.0,  999.0,  999.0,  999.0,  999.0,  999.0
2011/08/05 17:40,  999.0,  999.0,  999.0,    6.3,    5.8,    5.2,    5.3,    5.6,    5.6,    5.1,    4.4,    4.9,    5.0,    5.0,    4.6,    4.2,    4.8,    5.6,    6.1,    6.2,    6.2,    6.0,    5.8,    6.0,    6.5,    7.0,  999.0,  999.0,    6.3,    5.4,    5.2,    4.4,  999.0,    4.0,    3.8,    4.1,    4.4,    4.5,    3.7,    4.3,    4.6,    4.7,    4.8,    5.1,    4.3,    4.2,    3.9,    3.7,    3.5,    3.5,    3.9,    3.7,    2.6,    2.6,    2.8,    2.6,    2.7,  999.0,  999.0,  999.0,    4.5,    4.7,  999.0,  999.0,  999.0,  999.0,  999.0,  999.0,  999.0,  999.0,  999.0,  999.0,  999.0,  999.0,  999.0,  999.0,  999.0,  999.0,  999.0,  999.0
2011/08/05 17:50,  999.0,  999.0,  999.0,    6.3,    5.2,    4.8,    4.8,    4.1,    3.9,    4.1,    4.2,    4.2,    4.7,    5.1,    4.9,    4.6,    4.9,    5.5,    5.5,    5.6,    5.9,    4.9,    4.9,    4.8,    5.1,    5.3,    5.7,  999.0,  999.0,    4.8,    4.8,    4.6,    3.3,    3.6,    3.7,    4.0,    3.9,    3.9,    3.3,    3.5,    3.8,    4.1,    4.2,    4.6,    4.0,    3.5,    3.2,    3.5,    3.4,    3.0,    3.5,    3.3,    3.0,    3.0,    3.0,    3.0,    3.1,    4.0,    4.6,    4.8,    5.4,    5.3,    5.2,  999.0,  999.0,  999.0,  999.0,  999.0,  999.0,  999.0,  999.0,  999.0,  999.0,  999.0,  999.0,  999.0,  999.0,  999.0,  999.0,  999.0
2011/08/05 18:00,    0.0,   -0.1,  999.0,    1.1,  999.0,    4.2,    3.4,    2.7,    2.8,    3.3,    3.2,    3.5,    4.5,    5.0,    5.1,    5.5,    5.5,    5.8,    6.1,    5.8,    6.3,    6.3,    6.4,    6.3,    6.2,    6.4,    5.7,  999.0,    5.7,    4.7,    4.9,    5.3,    5.3,    4.9,    4.6,    5.3,    5.9,    5.3,    4.9,    5.1,    5.0,    4.8,    5.1,    5.3,  999.0,    3.8,    3.4,    3.3,    3.3,    2.8,    2.9,    3.1,    2.9,    3.0,    3.0,    2.8,    3.3,    3.8,    4.2,    4.2,    5.1,    4.9,    4.9,  999.0,  999.0,  999.0,  999.0,  999.0,  999.0,  999.0,  999.0,  999.0,  999.0,  999.0,  999.0,  999.0,  999.0,  999.0,  999.0,  999.0
2011/08/05 18:10,    0.6,  999.0,  999.0,  999.0,    3.7,    3.7,    3.2,    2.3,    2.2,    2.6,    2.8,    3.8,    4.1,    4.7,    4.9,    5.4,    5.7,    6.2,    6.0,    6.2,    6.5,  999.0,    6.5,    6.7,    6.5,    6.1,    5.7,    5.2,    5.4,    5.5,    4.6,    4.9,    5.0,    5.3,    5.4,    5.3,    5.4,    6.0,    4.4,    4.3,    4.6,    3.9,    4.0,  999.0,    3.9,    3.8,    3.2,    3.2,    3.0,  999.0,    2.5,    3.3,  999.0,    3.0,    3.4,    3.2,    3.7,    4.3,    4.6,  999.0,    5.6,    5.6,    5.5,    5.3,  999.0,  999.0,  999.0,  999.0,  999.0,  999.0,  999.0,  999.0,  999.0,  999.0,  999.0,  999.0,  999.0,  999.0,  999.0,  999.0
2011/08/05 18:20,  999.0,  999.0,  999.0,  999.0,    3.8,    3.9,    2.6,    2.3,    2.4,    2.7,    3.7,    4.7,    4.5,    4.7,    5.4,    5.7,    5.8,    6.2,    6.5,    6.4,  999.0,    6.9,    6.9,    6.8,    6.0,    5.8,    5.7,    5.2,    5.9,  999.0,    5.3,    4.4,    4.5,    4.4,    4.5,    4.8,    5.0,    4.7,    4.7,    3.5,  999.0,    3.5,    3.6,    4.0,  999.0,  999.0,  999.0,  999.0,  999.0,    3.9,    3.8,    3.8,    3.4,    2.8,    3.1,    3.0,    3.5,    4.0,    4.5,  999.0,  999.0,    4.7,    4.4,    4.6,  999.0,  999.0,  999.0,  999.0,  999.0,  999.0,  999.0,  999.0,  999.0,  999.0,  999.0,  999.0,  999.0,  999.0,  999.0,  999.0
2011/08/05 18:30,    0.3,  999.0,  999.0,  999.0,    4.2,    3.5,    2.4,  999.0,    2.5,    2.9,    3.5,    3.4,  999.0,    4.1,    4.4,    4.9,    5.0,    5.1,    5.9,    5.6,    5.8,    5.4,    5.4,    4.8,    5.1,    4.9,    5.1,    5.3,    6.1,    5.1,    5.4,    5.3,    5.3,    5.1,    5.1,  999.0,  999.0,    5.1,  999.0,  999.0,  999.0,  999.0,    3.3,    4.0,  999.0,  999.0,  999.0,    4.4,  999.0,  999.0,    5.0,    4.5,    4.3,    3.8,    3.5,    3.6,    3.6,    4.1,    4.7,  999.0,  999.0,    4.9,  999.0,    5.1,    4.6,  999.0,  999.0,  999.0,  999.0,  999.0,  999.0,  999.0,  999.0,  999.0,  999.0,  999.0,  999.0,  999.0,  999.0,  999.0
2011/08/05 18:40,  999.0,  999.0,  999.0,  999.0,    4.1,    3.6,    3.0,    3.2,    3.1,    3.7,    4.2,    4.6,    4.9,    5.0,    4.8,    4.7,    4.7,    4.8,    5.2,    5.0,    5.4,    5.4,    4.8,    4.4,    4.5,    4.2,    4.3,    3.8,    4.1,    4.1,    4.6,    4.4,    4.5,  999.0,    4.9,  999.0,  999.0,    4.5,  999.0,  999.0,  999.0,  999.0,    3.7,    4.2,    4.4,    4.4,    4.3,    4.3,  999.0,  999.0,  999.0,  999.0,    4.0,    4.0,    4.1,    4.1,    4.4,    4.6,    4.8,  999.0,  999.0,    4.5,  999.0,  999.0,    3.4,    3.6,  999.0,  999.0,  999.0,  999.0,  999.0,  999.0,  999.0,  999.0,  999.0,  999.0,  999.0,  999.0,  999.0,  999.0
2011/08/05 18:50,  999.0,  999.0,  999.0,    4.3,    3.4,    3.0,    2.9,    3.1,    3.3,    4.3,    5.2,    5.1,    4.9,    5.1,    5.1,    5.2,    5.8,    6.4,    6.5,    6.2,    6.2,    6.9,    6.2,    5.9,    5.8,  999.0,    5.0,    5.0,    5.0,  999.0,  999.0,  999.0,    5.7,  999.0,    4.5,    4.7,    4.5,    4.3,  999.0,  999.0,  999.0,    4.3,    3.8,    4.0,    4.1,    4.4,    4.0,    4.3,    4.1,  999.0,  999.0,  999.0,    5.0,    4.5,    4.6,    5.0,    5.1,    4.5,    5.0,  999.0,  999.0,    4.7,    5.0,  999.0,    3.6,    3.6,  999.0,  999.0,  999.0,  999.0,  999.0,  999.0,  999.0,  999.0,  999.0,  999.0,  999.0,  999.0,  999.0,  999.0
2011/08/05 19:00,  999.0,  999.0,  999.0,    4.6,    3.7,    3.1,    2.6,    2.9,    3.5,    4.8,    5.1,    4.4,    4.8,    5.0,    5.1,    5.7,    6.1,    6.2,    6.6,  999.0,    7.0,    6.7,    7.1,    7.5,    6.7,    6.5,    6.9,    7.1,    7.0,    5.9,    5.5,    5.6,    5.4,    5.0,    4.9,    4.3,    4.0,    3.5,  999.0,  999.0,  999.0,    2.5,    2.6,    3.0,    3.4,    3.6,    3.7,    3.7,  999.0,  999.0,    4.0,    4.6,    4.5,    3.9,    4.3,    3.9,    3.7,    3.5,  999.0,  999.0,    4.1,    4.3,    4.1,  999.0,    4.3,    3.8,    3.5,    3.6,  999.0,  999.0,  999.0,  999.0,  999.0,  999.0,  999.0,  999.0,  999.0,  999.0,  999.0,  999.0
2011/08/05 19:10,  999.0,  999.0,  999.0,    4.4,    3.4,    3.1,    2.8,    3.6,    4.5,    4.9,    4.7,    4.1,    4.8,    4.7,    5.3,    6.0,    6.2,    6.9,    7.7,    7.9,  999.0,    7.3,    6.8,    6.8,    6.3,    6.1,    6.8,    7.1,    6.9,    6.7,    6.7,    6.4,    5.6,    5.6,    5.2,    5.2,    5.5,  999.0,  999.0,  999.0,  999.0,  999.0,  999.0,  999.0,    3.1,    3.4,    3.6,  999.0,    3.3,  999.0,  999.0,  999.0,    3.9,    4.0,    3.8,    3.7,    3.1,    3.3,    3.5,    3.4,  999.0,  999.0,  999.0,  999.0,    3.7,    3.8,    3.5,    3.6,    3.3,  999.0,  999.0,  999.0,  999.0,  999.0,  999.0,  999.0,  999.0,  999.0,  999.0,  999.0
2011/08/05 19:20,  999.0,  999.0,  999.0,  999.0,  999.0,  999.0,  999.0,    4.4,    4.5,    4.1,    3.8,    6.0,    5.6,    4.8,    5.3,    5.9,    6.4,    7.2,    7.3,    7.1,    6.3,    6.2,    5.9,    6.1,    5.6,    6.6,    7.0,    6.8,    5.6,    6.0,    6.4,    6.1,    6.0,    5.9,    5.5,    5.1,    5.6,    6.0,    5.3,    4.9,    4.9,  999.0,  999.0,  999.0,  999.0,    2.7,  999.0,  999.0,    3.2,  999.0,    3.3,    3.0,    3.3,    3.3,    3.1,    2.8,    2.6,    2.8,  999.0,    2.7,    2.9,    3.0,  999.0,  999.0,    3.8,    3.7,  999.0,    3.2,    3.5,  999.0,  999.0,  999.0,  999.0,  999.0,  999.0,  999.0,  999.0,  999.0,  999.0,  999.0
2011/08/05 19:30,  999.0,  999.0,  999.0,  999.0,  999.0,  999.0,  999.0,  999.0,  999.0,  999.0,    4.4,    6.8,    6.9,    7.3,    7.3,    7.4,    7.8,    7.8,    7.6,    7.6,    7.4,    6.2,    6.2,    6.1,    6.7,    8.6,    9.4,    8.8,    8.9,    8.1,    6.7,    7.8,    6.6,    6.3,    6.3,    5.5,    5.6,    5.3,    5.4,  999.0,    4.4,    4.6,  999.0,  999.0,    1.6,    1.7,    1.8,    2.5,  999.0,    2.7,    2.8,    3.1,    2.5,    2.9,    3.0,  999.0,    2.4,  999.0,    2.2,    2.3,    2.8,    3.3,  999.0,  999.0,    3.9,    4.5,    4.9,    4.1,    4.2,  999.0,  999.0,  999.0,  999.0,  999.0,  999.0,  999.0,  999.0,  999.0,  999.0,  999.0
2011/08/05 19:40,  999.0,  999.0,  999.0,  999.0,  999.0,  999.0,  999.0,    5.1,  999.0,    5.4,    7.5,    6.0,    6.4,    6.4,    6.7,    7.1,    7.1,    7.3,    6.9,    6.7,    6.3,    7.0,    7.2,    7.1,    7.2,    7.0,    7.2,    6.8,    6.6,    6.3,    6.0,    5.2,    5.0,    5.6,    5.2,    5.0,    4.6,    4.2,    4.3,  999.0,    4.9,    4.9,  999.0,  999.0,    1.7,    1.6,  999.0,    1.5,    2.6,    3.3,    3.6,    3.3,    2.6,    3.0,    2.2,    2.3,    1.7,    1.2,    2.1,    2.4,    3.4,    3.6,  999.0,  999.0,  999.0,    4.2,    4.6,    4.6,    3.5,  999.0,  999.0,  999.0,  999.0,  999.0,  999.0,  999.0,  999.0,  999.0,  999.0,  999.0
2011/08/05 19:50,  999.0,  999.0,  999.0,    6.0,    5.9,    6.8,    7.1,    6.8,  999.0,    5.1,    5.4,    6.1,    6.7,    6.4,    7.0,    7.6,    7.0,    7.7,    7.7,    6.9,    6.0,    5.7,    6.5,    7.4,    7.4,    7.0,    5.8,    5.5,    6.0,    5.8,    5.4,    4.6,    4.1,    4.2,    4.2,    4.0,    3.8,    3.9,    3.8,  999.0,    3.4,    4.8,    3.8,  999.0,    3.5,    3.1,    2.8,    2.8,    2.8,    2.6,  999.0,  999.0,    2.5,    2.3,    2.0,    1.5,    1.3,    1.4,    1.6,    2.6,    3.3,    2.9,  999.0,  999.0,    3.8,    4.4,  999.0,  999.0,  999.0,  999.0,  999.0,  999.0,  999.0,  999.0,  999.0,  999.0,  999.0,  999.0,  999.0,  999.0
2011/08/05 20:00,  999.0,  999.0,  999.0,    6.3,    6.3,    6.6,    7.6,    7.2,    6.4,  999.0,  999.0,    6.8,    7.2,    6.1,    7.1,    9.5,    8.1,    8.0,    8.2,    8.2,    8.2,    7.5,    8.2,    8.6,    8.7,    7.5,    7.8,    6.6,    6.7,    6.3,    6.2,    6.0,    5.6,    4.9,    5.0,    4.7,    4.9,    4.0,    4.2,    4.1,    2.1,    3.2,    3.8,    4.2,    5.0,    4.8,    3.6,    3.1,    2.9,    2.7,    2.3,    1.4,    1.7,    1.2,    0.9,    0.5,    0.7,    0.6,    0.9,    2.0,    2.5,    3.0,  999.0,    3.2,    4.0,    4.3,    4.2,  999.0,  999.0,  999.0,  999.0,  999.0,  999.0,  999.0,  999.0,  999.0,  999.0,  999.0,  999.0,  999.0
2011/08/05 20:10,  999.0,  999.0,    6.3,    3.4,  999.0,  999.0,  999.0,    6.9,  999.0,    6.8,    5.8,    5.4,    5.0,    5.6,    6.5,    7.3,    7.1,    7.1,    7.1,    6.8,    6.4,    6.1,    6.5,    7.4,    7.2,    7.8,    6.7,    7.2,    7.6,    7.2,    6.7,    6.5,    6.3,    6.1,    5.2,    5.3,    4.6,  999.0,    0.7,   -0.4,    2.1,    0.5,    1.4,    1.1,   -0.0,    0.4,    1.0,    1.5,    1.7,    1.9,    1.9,    1.5,  999.0,    0.5,    0.9,    1.1,    0.5,  999.0,    0.3,    1.4,    1.9,    2.5,    2.7,    3.1,  999.0,    3.3,    2.3,  999.0,  999.0,    1.9,  999.0,  999.0,  999.0,  999.0,  999.0,  999.0,  999.0,  999.0,  999.0,  999.0
2011/08/05 20:20,  999.0,  999.0,  999.0,    7.9,    7.9,    7.5,    7.5,    7.3,    6.8,    6.8,    6.6,    6.4,    5.8,    5.7,    6.1,    6.5,    6.9,    6.7,    6.7,    6.9,    6.7,    6.4,    6.7,    7.3,    7.3,    7.8,    7.4,    6.9,    7.0,    6.5,    6.3,    6.3,    5.2,    5.6,    5.6,    4.9,    4.9,    5.5,    5.6,    5.6,    4.4,    4.5,    4.2,    4.1,    3.8,    3.1,    2.8,    2.3,    2.2,    2.1,    2.2,    1.9,    2.0,    1.0,    0.8,    0.9,    0.4,    0.2,    0.1,  999.0,    1.4,    1.9,  999.0,    1.9,    2.3,    1.9,  999.0,  999.0,  999.0,  999.0,  999.0,  999.0,  999.0,  999.0,  999.0,  999.0,  999.0,  999.0,  999.0,  999.0
2011/08/05 20:30,  999.0,  999.0,    7.1,    7.1,    7.7,    7.7,    7.0,    6.4,    5.9,  999.0,    5.6,    4.7,    5.5,    6.1,    7.2,    7.2,    7.1,    6.7,    6.8,    6.4,    6.5,    6.9,    7.0,    7.5,    7.9,    8.0,    7.8,    6.5,    7.5,    6.2,    5.2,    3.7,    4.1,    3.9,    3.8,    3.5,    3.2,    2.0,    3.0,    3.3,    4.0,    4.0,    3.8,    3.9,    4.0,    5.4,    4.6,    4.7,    4.3,    3.6,    3.1,    2.7,    2.1,    1.1,    0.8,    0.8,    0.8,    0.4,    0.3,    0.7,    1.4,    1.4,  999.0,    1.3,    1.5,  999.0,  999.0,    1.4,  999.0,  999.0,  999.0,  999.0,  999.0,  999.0,  999.0,  999.0,  999.0,  999.0,  999.0,  999.0
2011/08/05 20:40,  999.0,  999.0,  999.0,  999.0,  999.0,    6.7,    6.1,    5.9,    5.9,  999.0,  999.0,  999.0,  999.0,  999.0,    6.8,    6.3,    5.7,    6.1,    6.7,    6.3,    7.0,    7.2,    7.4,    7.7,    8.1,    8.1,    8.5,    8.6,    8.2,    8.0,    7.4,    4.1,    2.8,    2.1,    1.3,    1.5,    1.6,    1.5,    1.5,    2.1,    2.3,    2.3,    2.7,    2.4,    2.8,    2.6,    2.7,    2.4,    2.0,    1.7,    1.4,    1.2,    1.5,    0.9,    0.9,    0.9,    0.5,   -0.0,    0.1,  999.0,    1.8,    2.0,  999.0,    1.5,    1.8,    2.3,    1.5,    1.6,  999.0,  999.0,  999.0,  999.0,  999.0,  999.0,  999.0,  999.0,  999.0,  999.0,  999.0,  999.0
2011/08/05 20:50,  999.0,  999.0,  999.0,    5.7,  999.0,    6.2,    5.3,    7.3,    5.2,    6.1,    6.1,    7.2,    8.5,    7.8,    7.2,    7.2,    7.0,    6.5,    6.8,    7.2,    7.2,    8.2,    9.4,   10.5,   10.1,   10.5,   11.1,   11.8,   11.4,   10.9,   10.0,    9.7,    9.6,    9.4,    8.9,    7.8,    4.4,    4.6,    2.9,    3.2,    3.7,    2.9,    1.6,    1.2,    1.1,    0.8,    0.8,   -0.3,   -0.1,    0.4,    2.6,  999.0,    2.1,    2.1,    0.6,    0.3,    0.1,  999.0,    0.5,    1.8,    1.9,    2.0,    3.3,  999.0,    3.2,    3.1,    2.3,    3.0,  999.0,  999.0,  999.0,  999.0,  999.0,  999.0,  999.0,  999.0,  999.0,  999.0,  999.0,  999.0
2011/08/05 21:00,    4.6,    4.5,    3.9,    5.2,    6.0,    6.0,    6.6,    7.1,    6.4,    5.9,    5.5,    5.6,    6.4,    6.6,    6.4,    6.1,    5.9,    5.6,    5.6,    5.5,    5.7,  999.0,    8.4,    9.4,   10.3,   10.4,   10.0,   10.0,    9.7,    9.8,    9.4,    9.2,    9.3,    8.8,    7.9,    6.9,    6.3,    6.5,    8.5,    8.4,    8.8,    6.3,    7.6,    5.8,    3.7,    4.1,    4.7,    6.0,    6.0,    5.8,    5.9,    6.1,    5.8,    5.8,    3.3,    2.7,    1.7,    1.7,    1.6,    2.1,    2.1,    2.2,  999.0,  999.0,    3.4,    3.9,    2.8,    2.9,  999.0,  999.0,    2.2,  999.0,  999.0,  999.0,  999.0,  999.0,  999.0,  999.0,  999.0,  999.0
2011/08/05 21:10,  999.0,  999.0,  999.0,    1.9,    1.7,  999.0,  999.0,  999.0,  999.0,  999.0,    5.5,    3.6,  999.0,   -0.6,  999.0,  999.0,  999.0,  999.0,  999.0,  999.0,  999.0,  999.0,  999.0,  999.0,  999.0,  999.0,  999.0,    3.5,    4.3,    3.7,    3.0,    2.9,    2.5,    3.4,  999.0,  999.0,    4.1,    5.6,    5.3,    7.5,  999.0,  999.0,  999.0,  999.0,    3.4,  999.0,    1.9,  999.0,  999.0,    4.9,    4.5,    3.6,    3.2,    2.9,    3.9,    1.8,    0.3,   -0.1,    0.9,    1.0,    1.0,    1.2,    1.0,    2.0,    1.8,    2.2,    2.3,    2.3,    2.0,    2.0,  999.0,  999.0,  999.0,  999.0,  999.0,  999.0,  999.0,  999.0,  999.0,  999.0
2011/08/05 21:20,  999.0,  999.0,  999.0,  999.0,   -3.5,   -1.5,   -3.8,   -3.2,   -1.7,   -2.0,   -2.6,   -2.6,   -2.1,   -1.9,    0.2,    0.6,    0.8,    0.8,    0.5,   -1.0,   -0.7,  999.0,  999.0,  999.0,  999.0,  999.0,  999.0,  999.0,  999.0,  999.0,  999.0,  999.0,  999.0,  999.0,  999.0,  999.0,  999.0,  999.0,  999.0,  999.0,  999.0,  999.0,  999.0,  999.0,    3.8,    4.0,    4.2,    3.0,    3.9,    3.1,    3.0,    2.6,    2.1,    1.8,    1.3,    1.1,    0.9,    0.4,    0.7,    1.1,    1.3,    1.2,    1.8,    2.2,    2.2,    2.0,    1.8,    1.9,    1.9,  999.0,  999.0,  999.0,  999.0,  999.0,  999.0,  999.0,  999.0,  999.0,  999.0,  999.0
2011/08/05 21:30,  999.0,  999.0,  999.0,    3.8,  999.0,  999.0,  999.0,  999.0,  999.0,  999.0,  999.0,    1.6,  999.0,  999.0,  999.0,  999.0,    4.7,    4.5,    4.2,    4.6,    4.2,    4.8,    4.2,    4.8,    6.2,    4.5,  999.0,  999.0,    6.8,    5.7,    7.7,    4.8,    4.2,    3.1,    3.3,    3.9,    7.2,    7.9,    6.6,    7.0,  999.0,  999.0,    7.6,  999.0,    6.1,  999.0,    4.4,    4.2,    4.1,    4.1,    3.7,    3.4,    3.0,    1.5,    1.4,    1.1,    1.2,    0.5,    0.5,    0.2,    1.0,    1.1,    1.5,    0.8,    1.3,    1.3,    1.9,    2.0,    2.5,  999.0,    0.6,  999.0,  999.0,  999.0,  999.0,  999.0,  999.0,  999.0,  999.0,  999.0
2011/08/05 21:40,  999.0,  999.0,  999.0,  999.0,   -2.8,   -3.6,   -3.3,   -2.7,   -1.5,   -1.3,   -0.8,   -0.9,   -1.0,   -2.1,   -3.4,   -1.0,   -0.1,   -1.5,   -1.6,   -0.5,   -2.9,   -3.4,  999.0,   -1.6,   -0.9,   -0.7,   -0.3,  999.0,    5.8,    6.5,    7.5,    8.3,    8.2,    7.5,    7.3,    8.1,    8.8,    9.4,    9.4,    9.4,    7.5,    6.0,    4.5,    3.7,    4.4,    4.1,    2.8,    2.9,    3.4,    3.1,    3.2,    2.4,    1.5,    1.1,    1.1,    1.0,    1.2,    0.5,    0.4,   -0.0,    0.4,    0.8,    0.7,    0.9,    0.7,    0.6,    1.1,  999.0,  999.0,    1.0,    0.8,  999.0,  999.0,  999.0,  999.0,  999.0,  999.0,  999.0,  999.0,  999.0
2011/08/05 21:50,  999.0,  999.0,  999.0,  999.0,  999.0,   -1.9,   -1.2,   -0.3,    0.8,    0.8,    0.5,    0.4,   -0.8,   -1.0,   -1.1,   -2.5,   -2.1,   -2.4,    0.2,    0.6,   -1.9,   -3.2,    3.9,    5.2,    5.3,    4.6,    5.8,    6.3,    6.3,    6.4,    7.2,    7.9,    8.4,   11.5,   13.8,   13.7,   12.3,    9.8,    9.2,    9.0,    7.6,    6.2,    5.3,    4.2,  999.0,  999.0,    7.2,    6.8,  999.0,    4.8,    4.4,    5.9,    2.8,    2.2,    1.8,  999.0,  999.0,  999.0,    0.3,    0.7,  999.0,    1.4,    1.2,    2.1,    2.2,    1.8,    1.9,  999.0,  999.0,  999.0,  999.0,  999.0,  999.0,  999.0,  999.0,  999.0,  999.0,  999.0,  999.0,  999.0
2011/08/05 22:00,  999.0,    4.0,    5.2,    6.8,    5.6,    4.9,    4.5,    2.1,    6.8,    3.5,    4.1,    3.7,    4.5,    7.3,    7.8,    8.1,    8.8,    9.5,   10.4,    7.4,    6.9,    5.9,    5.7,    6.7,    5.3,    5.7,    6.8,  999.0,  999.0,    8.2,    7.8,    8.1,    8.1,    8.1,    8.6,    9.1,    8.8,    8.5,    8.3,    7.0,    6.1,    4.2,  999.0,  999.0,  999.0,  999.0,  999.0,  999.0,  999.0,  999.0,  999.0,    3.8,    3.4,    3.5,  999.0,    4.1,  999.0,    3.8,    4.0,    3.9,  999.0,  999.0,  999.0,  999.0,    1.3,    1.8,    2.1,    2.1,    2.0,  999.0,  999.0,  999.0,  999.0,  999.0,  999.0,  999.0,  999.0,  999.0,  999.0,  999.0
2011/08/05 22:10,  999.0,  999.0,  999.0,  999.0,  999.0,  999.0,  999.0,  999.0,  999.0,  999.0,  999.0,  999.0,  999.0,  999.0,  999.0,    1.8,    2.6,    5.6,    6.1,    5.8,    7.3,    2.4,    2.4,    2.3,    7.6,    9.6,    9.6,  999.0,  999.0,  999.0,   10.4,   10.7,   11.2,   11.0,   11.1,  999.0,  999.0,  999.0,  999.0,  999.0,  999.0,  999.0,  999.0,    5.2,    4.5,  999.0,  999.0,  999.0,  999.0,  999.0,  999.0,    3.9,    3.5,    3.3,    3.4,    3.0,    2.8,    3.0,    3.6,    3.7,    4.1,  999.0,  999.0,    2.4,    1.7,    2.0,    2.2,    2.4,    2.5,  999.0,  999.0,  999.0,  999.0,  999.0,  999.0,  999.0,  999.0,  999.0,  999.0,  999.0
2011/08/05 22:20,  999.0,  999.0,  999.0,    4.0,    3.7,    4.0,    4.6,    4.4,    4.7,    5.5,    5.4,    5.5,    4.7,    4.0,    4.0,    4.4,    5.0,    5.0,    5.0,    4.9,    4.6,    4.2,    3.6,    3.8,    5.2,    5.6,    6.7,    7.1,    7.5,    7.0,    7.2,    7.9,    7.6,    7.4,    7.7,    8.2,    8.2,    8.3,    8.0,  999.0,  999.0,    3.9,  999.0,    3.3,    3.7,    4.0,  999.0,  999.0,    3.3,    2.7,    3.6,    3.2,    2.8,    2.6,    3.2,    2.7,    2.8,    2.6,    2.6,    3.4,    3.1,  999.0,  999.0,  999.0,    2.7,    2.7,    2.6,    2.4,    2.5,    2.3,  999.0,  999.0,  999.0,  999.0,  999.0,  999.0,  999.0,  999.0,  999.0,  999.0
2011/08/05 22:30,  999.0,  999.0,  999.0,    4.3,    4.3,    3.7,    3.6,    4.1,    4.8,    6.0,    6.5,    6.3,    5.5,    4.9,    4.4,    4.7,    4.6,    4.7,    4.7,    4.7,    4.8,    3.2,    3.3,    3.4,    4.1,    4.8,    5.9,    6.7,    6.6,    6.7,    6.7,    6.8,    6.0,    5.9,    6.9,    8.0,    8.1,    8.6,  999.0,  999.0,  999.0,  999.0,  999.0,  999.0,  999.0,  999.0,  999.0,    3.8,    3.6,    3.7,    4.2,    3.9,    4.1,    3.5,    2.8,    2.2,    2.3,    2.6,    3.1,  999.0,  999.0,    3.2,    3.3,    3.4,    3.0,    2.9,    2.4,    2.7,    2.0,    1.1,  999.0,  999.0,  999.0,  999.0,  999.0,  999.0,  999.0,  999.0,  999.0,  999.0
2011/08/05 22:40,  999.0,  999.0,  999.0,  999.0,    4.7,    5.0,    5.1,    5.3,    5.7,    6.0,    6.6,    6.6,    6.5,    6.2,    5.8,    5.2,    4.8,    4.8,    5.2,    5.0,    3.9,    3.1,    2.4,    2.3,    2.9,    4.0,    4.8,    5.3,    5.5,    5.7,    5.6,    4.7,    5.4,    6.3,  999.0,  999.0,    8.6,  999.0,  999.0,  999.0,  999.0,  999.0,  999.0,  999.0,  999.0,  999.0,    3.9,    2.8,    2.7,    3.1,    3.9,    4.4,    3.6,    3.4,    3.3,    3.0,    2.5,    2.7,    2.9,    3.6,  999.0,  999.0,  999.0,    4.1,    3.4,  999.0,    1.4,    1.4,    1.6,    1.4,  999.0,  999.0,  999.0,  999.0,  999.0,  999.0,  999.0,  999.0,  999.0,  999.0
2011/08/05 22:50,  999.0,  999.0,  999.0,  999.0,    5.1,    5.4,    5.3,    5.4,    5.8,    5.9,    6.3,    6.3,    6.0,    6.1,    5.5,    5.2,    4.8,    4.8,    5.1,    5.5,    5.6,    4.9,    3.0,    2.6,    2.6,    3.6,    4.4,    5.3,    5.0,    5.0,    4.6,    4.4,    4.3,    5.2,    5.6,    5.9,  999.0,    5.5,  999.0,  999.0,  999.0,    6.7,  999.0,  999.0,  999.0,  999.0,  999.0,    4.0,    3.6,    3.9,    4.0,  999.0,    4.2,  999.0,  999.0,    3.9,    3.6,    3.2,    3.2,  999.0,  999.0,    3.9,    3.8,    3.9,    3.3,    2.9,    2.4,    2.2,    1.7,    1.2,  999.0,  999.0,  999.0,  999.0,  999.0,  999.0,  999.0,  999.0,  999.0,  999.0
2011/08/05 23:00,  999.0,  999.0,  999.0,  999.0,    5.2,    5.6,    5.6,    6.1,    6.6,    5.9,    5.8,    6.0,    6.3,    5.6,    6.4,    6.3,    6.3,    4.9,    5.2,    5.4,    5.1,    5.5,    5.0,    3.9,    3.2,    3.3,    4.1,    4.8,    4.8,    4.2,    4.3,    4.4,    5.2,    6.0,    6.6,    7.1,    7.0,    6.3,    6.9,  999.0,  999.0,  999.0,  999.0,  999.0,  999.0,  999.0,  999.0,  999.0,  999.0,    6.0,  999.0,  999.0,  999.0,  999.0,  999.0,  999.0,    2.8,    2.6,  999.0,  999.0,  999.0,  999.0,  999.0,  999.0,    2.8,    2.2,    2.2,    2.5,    1.9,  999.0,  999.0,  999.0,  999.0,  999.0,  999.0,  999.0,  999.0,  999.0,  999.0,  999.0
2011/08/05 23:10,  999.0,  999.0,  999.0,    5.2,    5.6,    5.9,    6.4,    6.8,    7.0,    6.9,    6.5,    5.8,    5.5,    5.6,    5.6,    5.0,    4.7,    4.6,    5.1,    5.2,    5.8,    5.7,    5.4,    4.9,    3.7,    3.8,  999.0,    1.8,    3.9,    2.5,    2.7,    4.2,    5.4,    6.3,    6.9,    7.0,    7.2,    7.1,    6.5,    6.2,  999.0,  999.0,  999.0,  999.0,  999.0,  999.0,  999.0,  999.0,    5.5,  999.0,    7.4,    7.5,  999.0,  999.0,    8.3,    7.9,  999.0,  999.0,  999.0,  999.0,  999.0,  999.0,  999.0,  999.0,  999.0,    2.5,    2.8,    2.7,    2.4,  999.0,  999.0,  999.0,  999.0,  999.0,  999.0,  999.0,  999.0,  999.0,  999.0,  999.0
2011/08/05 23:20,  999.0,  999.0,  999.0,  999.0,    5.5,    6.2,    5.5,    6.0,    6.7,    6.4,    6.1,    5.5,    5.8,    5.5,    5.0,    4.8,    4.6,    4.6,    4.6,    4.7,    4.5,    4.4,    4.5,    5.0,    4.6,    4.4,    3.9,    2.9,    2.7,    2.8,    3.6,    4.6,    5.8,    6.8,    7.4,    6.8,    5.9,    5.8,    6.0,    5.9,    5.6,  999.0,  999.0,  999.0,  999.0,    4.9,    5.9,    6.3,    6.4,    7.0,    7.9,    6.7,  999.0,  999.0,  999.0,  999.0,  999.0,  999.0,  999.0,  999.0,  999.0,  999.0,  999.0,  999.0,  999.0,    3.5,    4.2,  999.0,    3.4,    2.9,    2.6,  999.0,  999.0,  999.0,  999.0,  999.0,  999.0,  999.0,  999.0,  999.0
2011/08/05 23:30,  999.0,  999.0,  999.0,    5.1,    5.4,    5.9,  999.0,    6.1,  999.0,    6.4,    6.0,    5.9,    4.6,    4.6,    4.4,    5.1,    5.3,    5.6,    5.1,    5.3,    5.1,    4.7,    5.2,    5.0,    4.3,    4.1,    3.3,    2.9,    3.5,    3.6,    4.7,    4.5,    5.6,    6.3,    6.4,    6.3,    6.1,    6.7,    7.0,    6.9,    6.1,    6.1,    6.1,  999.0,    5.4,    5.2,    5.5,    5.5,    5.9,  999.0,  999.0,  999.0,  999.0,  999.0,  999.0,  999.0,  999.0,  999.0,  999.0,  999.0,  999.0,  999.0,  999.0,    3.4,    3.6,    4.2,    4.3,  999.0,    3.0,    2.9,    2.7,    2.7,  999.0,  999.0,  999.0,  999.0,  999.0,  999.0,  999.0,  999.0
2011/08/05 23:40,  999.0,  999.0,  999.0,    5.1,  999.0,  999.0,  999.0,  999.0,    5.6,    5.9,    5.9,    5.4,    5.0,    5.2,    5.1,    5.2,    5.0,    5.4,    5.8,    5.8,    6.3,    5.6,    5.4,    6.3,    5.9,    5.4,    4.4,    4.6,    2.7,    4.1,    4.6,    5.2,    6.0,    6.3,    6.8,    6.8,    6.4,    6.4,    6.5,    6.6,    6.1,    5.3,    5.4,  999.0,  999.0,  999.0,  999.0,    4.6,    4.6,    5.2,    5.7,  999.0,  999.0,  999.0,  999.0,  999.0,  999.0,  999.0,  999.0,  999.0,  999.0,  999.0,    4.0,    3.8,    3.5,    3.5,    3.6,    3.5,    2.5,    2.4,    2.0,    2.3,  999.0,  999.0,  999.0,  999.0,  999.0,  999.0,  999.0,  999.0
2011/08/05 23:50,  999.0,  999.0,  999.0,  999.0,  999.0,  999.0,  999.0,  999.0,    5.8,    5.5,    5.0,    4.9,    5.1,    5.2,    5.2,    5.4,    5.3,    5.8,    6.2,    6.0,  999.0,  999.0,    5.0,  999.0,  999.0,  999.0,  999.0,  999.0,    4.0,    4.9,    5.0,    5.2,    5.3,    4.9,    5.1,    5.1,    5.0,    4.8,    4.3,    3.9,    4.0,    4.1,    4.9,  999.0,  999.0,  999.0,    4.0,    3.8,    4.2,    4.7,  999.0,  999.0,  999.0,    6.6,    5.6,    6.8,  999.0,    5.6,    5.9,    6.2,    7.2,    5.4,    5.0,    4.4,    4.2,    4.6,    4.4,    4.3,    3.1,    2.8,    2.6,    2.8,  999.0,  999.0,  999.0,  999.0,  999.0,  999.0,  999.0,  999.0
